Time,TemperatureF,DewpointF,PressureIn,WindDirection,WindDirectionDegrees,WindSpeedMPH,WindSpeedGustMPH,Humidity,HourlyPrecipIn,Conditions,Clouds,dailyrainin,SoftwareType,DateUTC
2013-09-07 00:01:00,59.9,57.3,30.12,SW,228,0.0,0.0,91,0.00,,,0.00,Wunderground v.1.15,2013-09-07 04:01:00,
2013-09-07 00:02:00,59.8,57.2,30.12,SW,228,0.0,0.0,91,0.00,,,0.00,Wunderground v.1.15,2013-09-07 04:02:00,
2013-09-07 00:06:00,59.6,57.0,30.12,SW,228,0.0,0.0,91,0.00,,,0.00,Wunderground v.1.15,2013-09-07 04:06:00,
2013-09-07 00:07:00,59.7,57.1,30.12,SW,228,0.0,0.0,91,0.00,,,0.00,Wunderground v.1.15,2013-09-07 04:07:00,
2013-09-07 00:11:00,59.7,57.1,30.12,SW,229,0.0,0.0,91,0.00,,,0.00,Wunderground v.1.15,2013-09-07 04:11:00,
2013-09-07 00:12:00,59.6,57.0,30.12,SW,228,0.0,0.0,91,0.00,,,0.00,Wunderground v.1.15,2013-09-07 04:12:00,
2013-09-07 00:13:00,59.6,57.0,30.11,SW,228,0.0,0.0,91,0.00,,,0.00,Wunderground v.1.15,2013-09-07 04:13:00,
2013-09-07 00:16:00,59.6,57.3,30.12,SW,228,0.0,0.0,92,0.00,,,0.00,Wunderground v.1.15,2013-09-07 04:16:00,
2013-09-07 00:17:00,59.6,57.3,30.11,SW,228,0.0,0.0,92,0.00,,,0.00,Wunderground v.1.15,2013-09-07 04:17:00,
2013-09-07 00:19:00,59.5,57.2,30.11,SW,228,0.0,0.0,92,0.00,,,0.00,Wunderground v.1.15,2013-09-07 04:19:00,
2013-09-07 00:21:00,59.5,57.2,30.11,SW,228,0.0,0.0,92,0.00,,,0.00,Wunderground v.1.15,2013-09-07 04:21:00,
2013-09-07 00:22:00,59.6,57.3,30.11,SW,228,0.0,0.0,92,0.00,,,0.00,Wunderground v.1.15,2013-09-07 04:22:00,
2013-09-07 00:23:00,59.6,57.3,30.11,SW,229,0.0,0.0,92,0.00,,,0.00,Wunderground v.1.15,2013-09-07 04:23:00,
2013-09-07 00:24:00,59.7,57.4,30.11,SW,228,0.0,0.0,92,0.00,,,0.00,Wunderground v.1.15,2013-09-07 04:24:00,
2013-09-07 00:26:00,59.7,57.1,30.11,SW,228,0.0,0.0,91,0.00,,,0.00,Wunderground v.1.15,2013-09-07 04:26:00,
2013-09-07 00:27:00,59.7,57.1,30.11,SW,228,0.0,0.0,91,0.00,,,0.00,Wunderground v.1.15,2013-09-07 04:27:00,
2013-09-07 00:28:00,59.7,57.1,30.11,SW,228,0.0,0.0,91,0.00,,,0.00,Wunderground v.1.15,2013-09-07 04:28:00,
2013-09-07 00:30:00,59.6,57.0,30.12,SW,228,0.0,0.0,91,0.00,,,0.00,Wunderground v.1.15,2013-09-07 04:30:00,
2013-09-07 00:31:00,59.5,56.9,30.11,SW,229,0.0,0.0,91,0.00,,,0.00,Wunderground v.1.15,2013-09-07 04:31:00,
2013-09-07 00:32:00,59.5,56.9,30.11,SW,229,0.0,0.0,91,0.00,,,0.00,Wunderground v.1.15,2013-09-07 04:32:00,
2013-09-07 00:33:00,59.5,56.9,30.12,SW,228,0.0,0.0,91,0.00,,,0.00,Wunderground v.1.15,2013-09-07 04:33:00,
2013-09-07 00:34:00,59.5,56.9,30.12,SW,228,0.0,0.0,91,0.00,,,0.00,Wunderground v.1.15,2013-09-07 04:34:00,
2013-09-07 00:35:00,59.6,57.0,30.12,SW,228,0.0,0.0,91,0.00,,,0.00,Wunderground v.1.15,2013-09-07 04:35:00,
2013-09-07 00:36:00,59.6,57.0,30.12,SW,228,0.0,0.0,91,0.00,,,0.00,Wunderground v.1.15,2013-09-07 04:36:00,
2013-09-07 00:37:00,59.6,57.0,30.12,SW,228,0.0,0.0,91,0.00,,,0.00,Wunderground v.1.15,2013-09-07 04:37:00,
2013-09-07 00:38:00,59.6,57.0,30.12,SW,228,0.0,0.0,91,0.00,,,0.00,Wunderground v.1.15,2013-09-07 04:38:00,
2013-09-07 00:40:00,59.6,57.0,30.12,SW,228,0.0,0.0,91,0.00,,,0.00,Wunderground v.1.15,2013-09-07 04:40:00,
2013-09-07 00:41:00,59.6,57.0,30.12,SW,229,0.0,0.0,91,0.00,,,0.00,Wunderground v.1.15,2013-09-07 04:41:00,
2013-09-07 00:42:00,59.6,57.0,30.12,SW,228,0.0,0.0,91,0.00,,,0.00,Wunderground v.1.15,2013-09-07 04:42:00,
2013-09-07 00:43:00,59.7,57.1,30.12,SW,228,0.0,0.0,91,0.00,,,0.00,Wunderground v.1.15,2013-09-07 04:43:00,
2013-09-07 00:45:00,59.7,57.1,30.12,SW,228,0.0,0.0,91,0.00,,,0.00,Wunderground v.1.15,2013-09-07 04:45:00,
2013-09-07 00:46:00,59.7,57.1,30.12,SW,228,0.0,0.0,91,0.00,,,0.00,Wunderground v.1.15,2013-09-07 04:46:00,
2013-09-07 00:47:00,59.7,57.1,30.12,SW,228,0.0,0.0,91,0.00,,,0.00,Wunderground v.1.15,2013-09-07 04:47:00,
2013-09-07 00:48:00,59.8,57.2,30.12,SW,228,0.0,0.0,91,0.00,,,0.00,Wunderground v.1.15,2013-09-07 04:48:00,
2013-09-07 00:49:00,60.0,57.1,30.11,SW,229,0.0,0.0,90,0.00,,,0.00,Wunderground v.1.15,2013-09-07 04:49:00,
2013-09-07 00:50:00,60.1,57.2,30.12,SW,228,0.0,0.0,90,0.00,,,0.00,Wunderground v.1.15,2013-09-07 04:50:00,
2013-09-07 00:51:00,60.2,57.3,30.12,SW,228,0.0,0.0,90,0.00,,,0.00,Wunderground v.1.15,2013-09-07 04:51:00,
2013-09-07 00:52:00,60.2,57.3,30.12,SW,228,0.0,0.0,90,0.00,,,0.00,Wunderground v.1.15,2013-09-07 04:52:00,
2013-09-07 00:53:00,60.3,57.4,30.12,SW,228,0.0,0.0,90,0.00,,,0.00,Wunderground v.1.15,2013-09-07 04:53:00,
2013-09-07 00:54:00,60.4,57.5,30.12,SW,228,0.0,0.0,90,0.00,,,0.00,Wunderground v.1.15,2013-09-07 04:54:00,
2013-09-07 00:55:00,60.5,57.2,30.11,SW,228,0.0,0.0,89,0.00,,,0.00,Wunderground v.1.15,2013-09-07 04:55:00,
2013-09-07 00:56:00,60.6,57.3,30.11,SW,228,0.0,0.0,89,0.00,,,0.00,Wunderground v.1.15,2013-09-07 04:56:00,
2013-09-07 00:57:00,60.7,57.4,30.11,SW,228,0.0,0.0,89,0.00,,,0.00,Wunderground v.1.15,2013-09-07 04:57:00,
2013-09-07 00:58:00,60.7,57.4,30.11,SW,228,0.0,0.0,89,0.00,,,0.00,Wunderground v.1.15,2013-09-07 04:58:00,
2013-09-07 00:59:00,60.9,57.3,30.11,SW,228,0.0,0.0,88,0.00,,,0.00,Wunderground v.1.15,2013-09-07 04:59:00,
2013-09-07 01:00:00,60.9,57.3,30.11,SW,228,0.0,0.0,88,0.00,,,0.00,Wunderground v.1.15,2013-09-07 05:00:00,
2013-09-07 01:01:00,61.0,57.1,30.11,SW,229,1.0,2.0,87,0.00,,,0.00,Wunderground v.1.15,2013-09-07 05:01:00,
2013-09-07 01:02:00,61.1,57.2,30.11,SW,228,1.0,2.0,87,0.00,,,0.00,Wunderground v.1.15,2013-09-07 05:02:00,
2013-09-07 01:03:00,61.1,57.2,30.11,SW,228,1.0,3.0,87,0.00,,,0.00,Wunderground v.1.15,2013-09-07 05:03:00,
2013-09-07 01:04:00,61.2,57.3,30.11,SW,229,2.0,3.0,87,0.00,,,0.00,Wunderground v.1.15,2013-09-07 05:04:00,
2013-09-07 01:06:00,61.3,57.1,30.11,SW,229,2.0,4.0,86,0.00,,,0.00,Wunderground v.1.15,2013-09-07 05:06:00,
2013-09-07 01:07:00,61.2,57.0,30.11,SW,229,2.0,4.0,86,0.00,,,0.00,Wunderground v.1.15,2013-09-07 05:07:00,
2013-09-07 01:08:00,61.2,57.3,30.11,SW,229,4.0,4.0,87,0.00,,,0.00,Wunderground v.1.15,2013-09-07 05:08:00,
2013-09-07 01:10:00,61.2,57.3,30.11,SW,228,2.0,3.0,87,0.00,,,0.00,Wunderground v.1.15,2013-09-07 05:10:00,
2013-09-07 01:11:00,61.2,57.0,30.11,SW,229,0.0,3.0,86,0.00,,,0.00,Wunderground v.1.15,2013-09-07 05:11:00,
2013-09-07 01:12:00,61.2,57.3,30.11,SW,229,0.0,3.0,87,0.00,,,0.00,Wunderground v.1.15,2013-09-07 05:12:00,
2013-09-07 01:13:00,61.1,57.2,30.11,SW,228,0.0,3.0,87,0.00,,,0.00,Wunderground v.1.15,2013-09-07 05:13:00,
2013-09-07 01:14:00,61.2,57.0,30.11,SW,228,1.0,3.0,86,0.00,,,0.00,Wunderground v.1.15,2013-09-07 05:14:00,
2013-09-07 01:16:00,61.2,57.0,30.11,SW,228,3.0,3.0,86,0.00,,,0.00,Wunderground v.1.15,2013-09-07 05:16:00,
2013-09-07 01:17:00,61.3,57.1,30.11,SW,228,0.0,3.0,86,0.00,,,0.00,Wunderground v.1.15,2013-09-07 05:17:00,
2013-09-07 01:18:00,61.3,57.1,30.11,SW,229,1.0,3.0,86,0.00,,,0.00,Wunderground v.1.15,2013-09-07 05:18:00,
2013-09-07 01:20:00,61.4,56.8,30.11,SW,229,1.0,1.0,85,0.00,,,0.00,Wunderground v.1.15,2013-09-07 05:20:00,
2013-09-07 01:21:00,61.4,56.8,30.11,SW,228,3.0,3.0,85,0.00,,,0.00,Wunderground v.1.15,2013-09-07 05:21:00,
2013-09-07 01:22:00,61.4,56.8,30.11,SW,229,2.0,3.0,85,0.00,,,0.00,Wunderground v.1.15,2013-09-07 05:22:00,
2013-09-07 01:23:00,61.5,56.9,30.11,SW,228,0.0,3.0,85,0.00,,,0.00,Wunderground v.1.15,2013-09-07 05:23:00,
2013-09-07 01:25:00,61.5,56.9,30.11,SW,228,1.0,3.0,85,0.00,,,0.00,Wunderground v.1.15,2013-09-07 05:25:00,
2013-09-07 01:26:00,61.5,56.9,30.11,SW,228,0.0,3.0,85,0.00,,,0.00,Wunderground v.1.15,2013-09-07 05:26:00,
2013-09-07 01:27:00,61.5,56.9,30.11,SW,228,0.0,3.0,85,0.00,,,0.00,Wunderground v.1.15,2013-09-07 05:27:00,
2013-09-07 01:28:00,61.5,56.9,30.11,SW,228,1.0,3.0,85,0.00,,,0.00,Wunderground v.1.15,2013-09-07 05:28:00,
2013-09-07 01:32:00,61.5,56.6,30.11,SW,228,2.0,3.0,84,0.00,,,0.00,Wunderground v.1.15,2013-09-07 05:32:00,
2013-09-07 01:33:00,61.4,56.5,30.11,SW,228,3.0,4.0,84,0.00,,,0.00,Wunderground v.1.15,2013-09-07 05:33:00,
2013-09-07 01:37:00,61.5,56.6,30.11,SW,229,2.0,4.0,84,0.00,,,0.00,Wunderground v.1.15,2013-09-07 05:37:00,
2013-09-07 01:38:00,61.5,56.6,30.10,SW,229,3.0,4.0,84,0.00,,,0.00,Wunderground v.1.15,2013-09-07 05:38:00,
2013-09-07 01:39:00,61.6,56.7,30.11,SW,228,2.0,4.0,84,0.00,,,0.00,Wunderground v.1.15,2013-09-07 05:39:00,
2013-09-07 01:42:00,61.5,56.9,30.10,SW,228,1.0,2.0,85,0.00,,,0.00,Wunderground v.1.15,2013-09-07 05:42:00,
2013-09-07 01:43:00,61.5,56.9,30.10,SW,229,0.0,2.0,85,0.00,,,0.00,Wunderground v.1.15,2013-09-07 05:43:00,
2013-09-07 01:44:00,61.4,56.8,30.10,SW,228,1.0,3.0,85,0.00,,,0.00,Wunderground v.1.15,2013-09-07 05:44:00,
2013-09-07 01:47:00,61.3,56.8,30.10,SW,228,0.0,3.0,85,0.00,,,0.00,Wunderground v.1.15,2013-09-07 05:47:00,
2013-09-07 01:48:00,61.3,56.8,30.10,SW,229,0.0,3.0,85,0.00,,,0.00,Wunderground v.1.15,2013-09-07 05:48:00,
2013-09-07 01:49:00,61.3,56.8,30.10,SW,228,1.0,3.0,85,0.00,,,0.00,Wunderground v.1.15,2013-09-07 05:49:00,
2013-09-07 01:52:00,61.2,56.7,30.10,SW,229,2.0,2.0,85,0.00,,,0.00,Wunderground v.1.15,2013-09-07 05:52:00,
2013-09-07 01:53:00,61.2,56.7,30.10,SW,229,1.0,2.0,85,0.00,,,0.00,Wunderground v.1.15,2013-09-07 05:53:00,
2013-09-07 01:54:00,61.2,56.7,30.10,SW,228,0.0,2.0,85,0.00,,,0.00,Wunderground v.1.15,2013-09-07 05:54:00,
2013-09-07 01:56:00,61.2,56.7,30.10,SW,229,0.0,2.0,85,0.00,,,0.00,Wunderground v.1.15,2013-09-07 05:56:00,
2013-09-07 01:57:00,61.2,56.7,30.10,SW,228,0.0,2.0,85,0.00,,,0.00,Wunderground v.1.15,2013-09-07 05:57:00,
2013-09-07 01:58:00,61.2,56.7,30.10,SW,229,0.0,2.0,85,0.00,,,0.00,Wunderground v.1.15,2013-09-07 05:58:00,
2013-09-07 01:59:00,61.1,56.6,30.10,SW,228,0.0,2.0,85,0.00,,,0.00,Wunderground v.1.15,2013-09-07 05:59:00,
2013-09-07 02:01:00,60.9,56.4,30.10,SW,228,0.0,0.0,85,0.00,,,0.00,Wunderground v.1.15,2013-09-07 06:01:00,
2013-09-07 02:02:00,60.9,56.4,30.10,SW,229,0.0,1.0,85,0.00,,,0.00,Wunderground v.1.15,2013-09-07 06:02:00,
2013-09-07 02:03:00,60.9,56.4,30.11,SW,228,0.0,1.0,85,0.00,,,0.00,Wunderground v.1.15,2013-09-07 06:03:00,
2013-09-07 02:04:00,60.9,56.4,30.11,SW,229,0.0,1.0,85,0.00,,,0.00,Wunderground v.1.15,2013-09-07 06:04:00,
2013-09-07 02:06:00,60.7,56.2,30.10,SW,229,0.0,1.0,85,0.00,,,0.00,Wunderground v.1.15,2013-09-07 06:06:00,
2013-09-07 02:07:00,60.7,56.2,30.10,SW,228,0.0,1.0,85,0.00,,,0.00,Wunderground v.1.15,2013-09-07 06:07:00,
2013-09-07 02:08:00,60.7,56.2,30.11,SW,229,0.0,1.0,85,0.00,,,0.00,Wunderground v.1.15,2013-09-07 06:08:00,
2013-09-07 02:09:00,60.7,56.2,30.10,SW,228,0.0,1.0,85,0.00,,,0.00,Wunderground v.1.15,2013-09-07 06:09:00,
2013-09-07 02:12:00,60.7,56.2,30.10,SW,228,0.0,0.0,85,0.00,,,0.00,Wunderground v.1.15,2013-09-07 06:12:00,
2013-09-07 02:13:00,60.7,56.2,30.10,SW,229,0.0,0.0,85,0.00,,,0.00,Wunderground v.1.15,2013-09-07 06:13:00,
2013-09-07 02:14:00,60.7,56.2,30.10,SW,228,0.0,0.0,85,0.00,,,0.00,Wunderground v.1.15,2013-09-07 06:14:00,
2013-09-07 02:17:00,60.7,56.5,30.10,SW,228,0.0,0.0,86,0.00,,,0.00,Wunderground v.1.15,2013-09-07 06:17:00,
2013-09-07 02:18:00,60.7,56.5,30.10,SW,229,0.0,0.0,86,0.00,,,0.00,Wunderground v.1.15,2013-09-07 06:18:00,
2013-09-07 02:19:00,60.7,56.5,30.10,SW,229,0.0,0.0,86,0.00,,,0.00,Wunderground v.1.15,2013-09-07 06:19:00,
2013-09-07 02:22:00,60.7,56.5,30.10,SW,229,0.0,0.0,86,0.00,,,0.00,Wunderground v.1.15,2013-09-07 06:22:00,
2013-09-07 02:23:00,60.6,56.4,30.10,SW,229,0.0,0.0,86,0.00,,,0.00,Wunderground v.1.15,2013-09-07 06:23:00,
2013-09-07 02:24:00,60.6,56.4,30.10,SW,228,0.0,0.0,86,0.00,,,0.00,Wunderground v.1.15,2013-09-07 06:24:00,
2013-09-07 02:27:00,60.4,56.2,30.10,SW,228,0.0,0.0,86,0.00,,,0.00,Wunderground v.1.15,2013-09-07 06:27:00,
2013-09-07 02:28:00,60.3,56.1,30.10,SW,229,0.0,0.0,86,0.00,,,0.00,Wunderground v.1.15,2013-09-07 06:28:00,
2013-09-07 02:29:00,60.3,56.1,30.10,SW,229,0.0,0.0,86,0.00,,,0.00,Wunderground v.1.15,2013-09-07 06:29:00,
2013-09-07 02:30:00,60.2,56.0,30.10,SW,229,0.0,0.0,86,0.00,,,0.00,Wunderground v.1.15,2013-09-07 06:30:00,
2013-09-07 02:32:00,60.1,56.2,30.10,SW,228,0.0,0.0,87,0.00,,,0.00,Wunderground v.1.15,2013-09-07 06:32:00,
2013-09-07 02:33:00,60.0,56.4,30.10,SW,228,0.0,0.0,88,0.00,,,0.00,Wunderground v.1.15,2013-09-07 06:33:00,
2013-09-07 02:34:00,59.9,56.3,30.10,SW,228,0.0,0.0,88,0.00,,,0.00,Wunderground v.1.15,2013-09-07 06:34:00,
2013-09-07 02:35:00,59.9,56.3,30.10,SW,229,0.0,0.0,88,0.00,,,0.00,Wunderground v.1.15,2013-09-07 06:35:00,
2013-09-07 02:37:00,59.7,56.1,30.10,SW,229,0.0,0.0,88,0.00,,,0.00,Wunderground v.1.15,2013-09-07 06:37:00,
2013-09-07 02:38:00,59.6,56.0,30.10,SW,228,0.0,0.0,88,0.00,,,0.00,Wunderground v.1.15,2013-09-07 06:38:00,
2013-09-07 02:39:00,59.6,56.0,30.10,SW,229,0.0,0.0,88,0.00,,,0.00,Wunderground v.1.15,2013-09-07 06:39:00,
2013-09-07 02:40:00,59.5,55.9,30.10,SW,228,0.0,0.0,88,0.00,,,0.00,Wunderground v.1.15,2013-09-07 06:40:00,
2013-09-07 02:42:00,59.3,55.7,30.10,SW,228,0.0,0.0,88,0.00,,,0.00,Wunderground v.1.15,2013-09-07 06:42:00,
2013-09-07 02:43:00,59.3,56.1,30.10,SW,229,0.0,0.0,89,0.00,,,0.00,Wunderground v.1.15,2013-09-07 06:43:00,
2013-09-07 02:44:00,59.3,56.1,30.10,SW,229,0.0,0.0,89,0.00,,,0.00,Wunderground v.1.15,2013-09-07 06:44:00,
2013-09-07 02:46:00,59.2,56.0,30.10,SW,228,0.0,0.0,89,0.00,,,0.00,Wunderground v.1.15,2013-09-07 06:46:00,
2013-09-07 02:47:00,59.2,56.0,30.09,SW,228,0.0,0.0,89,0.00,,,0.00,Wunderground v.1.15,2013-09-07 06:47:00,
2013-09-07 02:48:00,59.2,56.3,30.10,SW,228,0.0,0.0,90,0.00,,,0.00,Wunderground v.1.15,2013-09-07 06:48:00,
2013-09-07 02:49:00,59.1,55.9,30.10,SW,228,0.0,0.0,89,0.00,,,0.00,Wunderground v.1.15,2013-09-07 06:49:00,
2013-09-07 02:51:00,59.1,55.9,30.10,SW,228,0.0,0.0,89,0.00,,,0.00,Wunderground v.1.15,2013-09-07 06:51:00,
2013-09-07 02:52:00,59.0,55.8,30.10,SW,229,0.0,0.0,89,0.00,,,0.00,Wunderground v.1.15,2013-09-07 06:52:00,
2013-09-07 02:54:00,58.9,55.7,30.10,SW,228,0.0,0.0,89,0.00,,,0.00,Wunderground v.1.15,2013-09-07 06:54:00,
2013-09-07 02:56:00,58.8,55.9,30.10,SW,228,0.0,0.0,90,0.00,,,0.00,Wunderground v.1.15,2013-09-07 06:56:00,
2013-09-07 02:57:00,58.8,55.9,30.10,SW,229,0.0,0.0,90,0.00,,,0.00,Wunderground v.1.15,2013-09-07 06:57:00,
2013-09-07 02:58:00,58.8,55.9,30.10,SW,228,0.0,0.0,90,0.00,,,0.00,Wunderground v.1.15,2013-09-07 06:58:00,
2013-09-07 02:59:00,58.8,55.9,30.10,SW,228,0.0,0.0,90,0.00,,,0.00,Wunderground v.1.15,2013-09-07 06:59:00,
2013-09-07 03:00:00,58.8,55.9,30.10,SW,228,0.0,0.0,90,0.00,,,0.00,Wunderground v.1.15,2013-09-07 07:00:00,
2013-09-07 03:01:00,58.8,55.9,30.10,SW,229,0.0,0.0,90,0.00,,,0.00,Wunderground v.1.15,2013-09-07 07:01:00,
2013-09-07 03:03:00,58.7,55.8,30.10,SW,229,0.0,0.0,90,0.00,,,0.00,Wunderground v.1.15,2013-09-07 07:03:00,
2013-09-07 03:04:00,58.7,55.8,30.10,SW,228,0.0,0.0,90,0.00,,,0.00,Wunderground v.1.15,2013-09-07 07:04:00,
2013-09-07 03:05:00,58.7,56.1,30.10,SW,228,0.0,0.0,91,0.00,,,0.00,Wunderground v.1.15,2013-09-07 07:05:00,
2013-09-07 03:07:00,58.7,56.1,30.10,SW,228,0.0,0.0,91,0.00,,,0.00,Wunderground v.1.15,2013-09-07 07:07:00,
2013-09-07 03:08:00,58.7,56.1,30.10,SW,229,0.0,0.0,91,0.00,,,0.00,Wunderground v.1.15,2013-09-07 07:08:00,
2013-09-07 03:09:00,58.7,56.1,30.10,SW,229,0.0,0.0,91,0.00,,,0.00,Wunderground v.1.15,2013-09-07 07:09:00,
2013-09-07 03:10:00,58.7,56.1,30.10,SW,229,0.0,0.0,91,0.00,,,0.00,Wunderground v.1.15,2013-09-07 07:10:00,
2013-09-07 03:12:00,58.7,56.1,30.10,SW,228,0.0,0.0,91,0.00,,,0.00,Wunderground v.1.15,2013-09-07 07:12:00,
2013-09-07 03:13:00,58.7,56.1,30.10,SW,228,0.0,0.0,91,0.00,,,0.00,Wunderground v.1.15,2013-09-07 07:13:00,
2013-09-07 03:14:00,58.7,56.1,30.10,SW,228,0.0,0.0,91,0.00,,,0.00,Wunderground v.1.15,2013-09-07 07:14:00,
2013-09-07 03:15:00,58.7,56.1,30.10,SW,228,0.0,0.0,91,0.00,,,0.00,Wunderground v.1.15,2013-09-07 07:15:00,
2013-09-07 03:16:00,58.7,56.1,30.10,SW,228,0.0,0.0,91,0.00,,,0.00,Wunderground v.1.15,2013-09-07 07:16:00,
2013-09-07 03:17:00,58.7,56.4,30.10,SW,228,0.0,0.0,92,0.00,,,0.00,Wunderground v.1.15,2013-09-07 07:17:00,
2013-09-07 03:18:00,58.7,56.4,30.10,SW,228,0.0,0.0,92,0.00,,,0.00,Wunderground v.1.15,2013-09-07 07:18:00,
2013-09-07 03:19:00,58.7,56.4,30.10,SW,228,0.0,0.0,92,0.00,,,0.00,Wunderground v.1.15,2013-09-07 07:19:00,
2013-09-07 03:20:00,58.7,56.4,30.09,SW,228,0.0,0.0,92,0.00,,,0.00,Wunderground v.1.15,2013-09-07 07:20:00,
2013-09-07 03:21:00,58.7,56.1,30.10,SW,229,0.0,0.0,91,0.00,,,0.00,Wunderground v.1.15,2013-09-07 07:21:00,
2013-09-07 03:22:00,58.7,56.1,30.09,SW,228,0.0,0.0,91,0.00,,,0.00,Wunderground v.1.15,2013-09-07 07:22:00,
2013-09-07 03:23:00,58.7,56.4,30.09,SW,228,0.0,0.0,92,0.00,,,0.00,Wunderground v.1.15,2013-09-07 07:23:00,
2013-09-07 03:24:00,58.7,56.1,30.09,SW,229,0.0,0.0,91,0.00,,,0.00,Wunderground v.1.15,2013-09-07 07:24:00,
2013-09-07 03:27:00,58.5,55.9,30.09,SW,228,0.0,0.0,91,0.00,,,0.00,Wunderground v.1.15,2013-09-07 07:27:00,
2013-09-07 03:28:00,58.5,55.9,30.09,SW,228,0.0,0.0,91,0.00,,,0.00,Wunderground v.1.15,2013-09-07 07:28:00,
2013-09-07 03:29:00,58.5,55.9,30.09,SW,228,0.0,0.0,91,0.00,,,0.00,Wunderground v.1.15,2013-09-07 07:29:00,
2013-09-07 03:30:00,58.4,55.8,30.09,SW,228,0.0,0.0,91,0.00,,,0.00,Wunderground v.1.15,2013-09-07 07:30:00,
2013-09-07 03:32:00,58.3,55.7,30.09,SW,228,0.0,0.0,91,0.00,,,0.00,Wunderground v.1.15,2013-09-07 07:32:00,
2013-09-07 03:33:00,58.2,55.6,30.09,SW,228,0.0,0.0,91,0.00,,,0.00,Wunderground v.1.15,2013-09-07 07:33:00,
2013-09-07 03:34:00,58.2,55.6,30.09,SW,228,0.0,0.0,91,0.00,,,0.00,Wunderground v.1.15,2013-09-07 07:34:00,
2013-09-07 03:35:00,58.2,55.6,30.09,SW,228,0.0,0.0,91,0.00,,,0.00,Wunderground v.1.15,2013-09-07 07:35:00,
2013-09-07 03:37:00,58.2,55.9,30.09,SW,228,0.0,0.0,92,0.00,,,0.00,Wunderground v.1.15,2013-09-07 07:37:00,
2013-09-07 03:38:00,58.2,55.9,30.09,SW,228,0.0,0.0,92,0.00,,,0.00,Wunderground v.1.15,2013-09-07 07:38:00,
2013-09-07 03:39:00,58.2,55.9,30.09,SW,228,0.0,0.0,92,0.00,,,0.00,Wunderground v.1.15,2013-09-07 07:39:00,
2013-09-07 03:40:00,58.2,55.9,30.09,SW,228,0.0,0.0,92,0.00,,,0.00,Wunderground v.1.15,2013-09-07 07:40:00,
2013-09-07 03:42:00,58.2,55.9,30.09,SW,228,0.0,0.0,92,0.00,,,0.00,Wunderground v.1.15,2013-09-07 07:42:00,
2013-09-07 03:43:00,58.1,55.8,30.09,SW,228,0.0,0.0,92,0.00,,,0.00,Wunderground v.1.15,2013-09-07 07:43:00,
2013-09-07 03:44:00,58.1,55.8,30.09,SW,228,0.0,0.0,92,0.00,,,0.00,Wunderground v.1.15,2013-09-07 07:44:00,
2013-09-07 03:45:00,58.0,55.7,30.09,SW,228,0.0,0.0,92,0.00,,,0.00,Wunderground v.1.15,2013-09-07 07:45:00,
2013-09-07 03:47:00,57.9,55.6,30.09,SW,228,0.0,0.0,92,0.00,,,0.00,Wunderground v.1.15,2013-09-07 07:47:00,
2013-09-07 03:48:00,57.9,55.6,30.09,SW,228,0.0,0.0,92,0.00,,,0.00,Wunderground v.1.15,2013-09-07 07:48:00,
2013-09-07 03:49:00,57.9,55.9,30.09,SW,229,0.0,0.0,93,0.00,,,0.00,Wunderground v.1.15,2013-09-07 07:49:00,
2013-09-07 03:50:00,57.8,55.8,30.09,SW,229,0.0,0.0,93,0.00,,,0.00,Wunderground v.1.15,2013-09-07 07:50:00,
2013-09-07 03:52:00,57.9,55.9,30.09,SW,229,0.0,0.0,93,0.00,,,0.00,Wunderground v.1.15,2013-09-07 07:52:00,
2013-09-07 03:53:00,57.9,55.9,30.09,SW,228,0.0,0.0,93,0.00,,,0.00,Wunderground v.1.15,2013-09-07 07:53:00,
2013-09-07 03:54:00,57.9,55.9,30.09,SW,228,0.0,0.0,93,0.00,,,0.00,Wunderground v.1.15,2013-09-07 07:54:00,
2013-09-07 03:56:00,57.9,55.9,30.09,SW,228,0.0,0.0,93,0.00,,,0.00,Wunderground v.1.15,2013-09-07 07:56:00,
2013-09-07 03:58:00,57.9,55.9,30.09,SW,228,0.0,0.0,93,0.00,,,0.00,Wunderground v.1.15,2013-09-07 07:58:00,
2013-09-07 03:59:00,57.8,55.8,30.09,SW,228,0.0,0.0,93,0.00,,,0.00,Wunderground v.1.15,2013-09-07 07:59:00,
2013-09-07 04:00:00,57.8,55.8,30.09,SW,228,0.0,0.0,93,0.00,,,0.00,Wunderground v.1.15,2013-09-07 08:00:00,
2013-09-07 04:01:00,57.8,55.8,30.09,SW,228,0.0,0.0,93,0.00,,,0.00,Wunderground v.1.15,2013-09-07 08:01:00,
2013-09-07 04:03:00,57.8,55.8,30.09,SW,229,0.0,0.0,93,0.00,,,0.00,Wunderground v.1.15,2013-09-07 08:03:00,
2013-09-07 04:04:00,57.8,55.8,30.09,SW,228,0.0,0.0,93,0.00,,,0.00,Wunderground v.1.15,2013-09-07 08:04:00,
2013-09-07 04:05:00,57.8,55.8,30.09,SW,229,0.0,0.0,93,0.00,,,0.00,Wunderground v.1.15,2013-09-07 08:05:00,
2013-09-07 04:06:00,57.8,55.8,30.09,SW,228,0.0,0.0,93,0.00,,,0.00,Wunderground v.1.15,2013-09-07 08:06:00,
2013-09-07 04:08:00,57.8,55.8,30.10,SW,228,0.0,0.0,93,0.00,,,0.00,Wunderground v.1.15,2013-09-07 08:08:00,
2013-09-07 04:09:00,57.7,55.7,30.10,SW,228,0.0,0.0,93,0.00,,,0.00,Wunderground v.1.15,2013-09-07 08:09:00,
2013-09-07 04:10:00,57.7,55.7,30.10,SW,229,0.0,0.0,93,0.00,,,0.00,Wunderground v.1.15,2013-09-07 08:10:00,
2013-09-07 04:11:00,57.6,55.6,30.10,SW,228,0.0,0.0,93,0.00,,,0.00,Wunderground v.1.15,2013-09-07 08:11:00,
2013-09-07 04:13:00,57.6,55.6,30.10,SW,229,0.0,0.0,93,0.00,,,0.00,Wunderground v.1.15,2013-09-07 08:13:00,
2013-09-07 04:14:00,57.6,55.6,30.10,SW,229,0.0,0.0,93,0.00,,,0.00,Wunderground v.1.15,2013-09-07 08:14:00,
2013-09-07 04:16:00,57.6,55.6,30.10,SW,228,0.0,0.0,93,0.00,,,0.00,Wunderground v.1.15,2013-09-07 08:16:00,
2013-09-07 04:18:00,57.6,55.6,30.10,SW,228,0.0,0.0,93,0.00,,,0.00,Wunderground v.1.15,2013-09-07 08:18:00,
2013-09-07 04:19:00,57.6,55.6,30.10,SW,228,0.0,0.0,93,0.00,,,0.00,Wunderground v.1.15,2013-09-07 08:19:00,
2013-09-07 04:20:00,57.5,55.5,30.10,SW,228,0.0,0.0,93,0.00,,,0.00,Wunderground v.1.15,2013-09-07 08:20:00,
2013-09-07 04:21:00,57.5,55.5,30.10,SW,228,0.0,0.0,93,0.00,,,0.00,Wunderground v.1.15,2013-09-07 08:21:00,
2013-09-07 04:23:00,57.5,55.5,30.10,SW,228,0.0,0.0,93,0.00,,,0.00,Wunderground v.1.15,2013-09-07 08:23:00,
2013-09-07 04:24:00,57.5,55.5,30.10,SW,228,0.0,0.0,93,0.00,,,0.00,Wunderground v.1.15,2013-09-07 08:24:00,
2013-09-07 04:25:00,57.4,55.4,30.10,SW,228,0.0,0.0,93,0.00,,,0.00,Wunderground v.1.15,2013-09-07 08:25:00,
2013-09-07 04:26:00,57.4,55.4,30.10,SW,229,0.0,0.0,93,0.00,,,0.00,Wunderground v.1.15,2013-09-07 08:26:00,
2013-09-07 04:28:00,57.4,55.7,30.10,SW,228,0.0,0.0,94,0.00,,,0.00,Wunderground v.1.15,2013-09-07 08:28:00,
2013-09-07 04:29:00,57.4,55.7,30.10,SW,229,0.0,0.0,94,0.00,,,0.00,Wunderground v.1.15,2013-09-07 08:29:00,
2013-09-07 04:31:00,57.4,55.7,30.10,SW,228,0.0,0.0,94,0.00,,,0.00,Wunderground v.1.15,2013-09-07 08:31:00,
2013-09-07 04:32:00,57.5,55.5,30.10,SW,228,0.0,0.0,93,0.00,,,0.00,Wunderground v.1.15,2013-09-07 08:32:00,
2013-09-07 04:33:00,57.5,55.5,30.10,SW,228,0.0,0.0,93,0.00,,,0.00,Wunderground v.1.15,2013-09-07 08:33:00,
2013-09-07 04:34:00,57.5,55.5,30.10,SW,228,0.0,0.0,93,0.00,,,0.00,Wunderground v.1.15,2013-09-07 08:34:00,
2013-09-07 04:36:00,57.4,55.4,30.10,SW,229,0.0,0.0,93,0.00,,,0.00,Wunderground v.1.15,2013-09-07 08:36:00,
2013-09-07 04:37:00,57.4,55.4,30.10,SW,228,0.0,0.0,93,0.00,,,0.00,Wunderground v.1.15,2013-09-07 08:37:00,
2013-09-07 04:38:00,57.4,55.4,30.10,SW,228,0.0,0.0,93,0.00,,,0.00,Wunderground v.1.15,2013-09-07 08:38:00,
2013-09-07 04:39:00,57.3,55.3,30.10,SW,228,0.0,0.0,93,0.00,,,0.00,Wunderground v.1.15,2013-09-07 08:39:00,
2013-09-07 04:41:00,57.3,55.3,30.10,SW,228,0.0,0.0,93,0.00,,,0.00,Wunderground v.1.15,2013-09-07 08:41:00,
2013-09-07 04:42:00,57.3,55.6,30.10,SW,229,0.0,0.0,94,0.00,,,0.00,Wunderground v.1.15,2013-09-07 08:42:00,
2013-09-07 04:43:00,57.3,55.6,30.10,SW,229,0.0,0.0,94,0.00,,,0.00,Wunderground v.1.15,2013-09-07 08:43:00,
2013-09-07 04:44:00,57.4,55.7,30.10,SW,229,0.0,0.0,94,0.00,,,0.00,Wunderground v.1.15,2013-09-07 08:44:00,
2013-09-07 04:46:00,57.5,55.8,30.10,SW,229,2.0,3.0,94,0.00,,,0.00,Wunderground v.1.15,2013-09-07 08:46:00,
2013-09-07 04:47:00,57.5,55.8,30.10,SW,228,2.0,3.0,94,0.00,,,0.00,Wunderground v.1.15,2013-09-07 08:47:00,
2013-09-07 04:48:00,57.6,55.9,30.10,SW,228,2.0,3.0,94,0.00,,,0.00,Wunderground v.1.15,2013-09-07 08:48:00,
2013-09-07 04:49:00,57.7,56.0,30.10,SW,228,2.0,3.0,94,0.00,,,0.00,Wunderground v.1.15,2013-09-07 08:49:00,
2013-09-07 04:51:00,57.8,55.8,30.11,SW,228,2.0,2.0,93,0.00,,,0.00,Wunderground v.1.15,2013-09-07 08:51:00,
2013-09-07 04:52:00,57.8,55.8,30.11,SW,229,2.0,2.0,93,0.00,,,0.00,Wunderground v.1.15,2013-09-07 08:52:00,
2013-09-07 04:53:00,57.9,55.9,30.11,SW,228,1.0,2.0,93,0.00,,,0.00,Wunderground v.1.15,2013-09-07 08:53:00,
2013-09-07 04:54:00,58.0,56.0,30.11,SW,229,1.0,2.0,93,0.00,,,0.00,Wunderground v.1.15,2013-09-07 08:54:00,
2013-09-07 04:55:00,57.9,55.9,30.11,SW,228,1.0,2.0,93,0.00,,,0.00,Wunderground v.1.15,2013-09-07 08:55:00,
2013-09-07 04:56:00,57.9,55.9,30.11,SW,228,1.0,2.0,93,0.00,,,0.00,Wunderground v.1.15,2013-09-07 08:56:00,
2013-09-07 04:57:00,58.0,56.0,30.11,SW,228,1.0,2.0,93,0.00,,,0.00,Wunderground v.1.15,2013-09-07 08:57:00,
2013-09-07 04:58:00,57.9,55.9,30.10,SW,228,2.0,2.0,93,0.00,,,0.00,Wunderground v.1.15,2013-09-07 08:58:00,
2013-09-07 04:59:00,57.9,55.9,30.10,SW,228,1.0,2.0,93,0.00,,,0.00,Wunderground v.1.15,2013-09-07 08:59:00,
2013-09-07 05:00:00,57.9,55.9,30.10,SW,229,1.0,2.0,93,0.00,,,0.00,Wunderground v.1.15,2013-09-07 09:00:00,
2013-09-07 05:01:00,57.9,55.9,30.10,SW,228,3.0,3.0,93,0.00,,,0.00,Wunderground v.1.15,2013-09-07 09:01:00,
2013-09-07 05:02:00,57.9,55.9,30.10,SW,229,1.0,3.0,93,0.00,,,0.00,Wunderground v.1.15,2013-09-07 09:02:00,
2013-09-07 05:03:00,57.9,55.9,30.10,SW,228,1.0,3.0,93,0.00,,,0.00,Wunderground v.1.15,2013-09-07 09:03:00,
2013-09-07 05:04:00,58.0,56.0,30.10,SW,229,1.0,3.0,93,0.00,,,0.00,Wunderground v.1.15,2013-09-07 09:04:00,
2013-09-07 05:05:00,58.0,56.0,30.10,SW,229,1.0,3.0,93,0.00,,,0.00,Wunderground v.1.15,2013-09-07 09:05:00,
2013-09-07 05:06:00,58.0,56.0,30.10,SW,228,0.0,3.0,93,0.00,,,0.00,Wunderground v.1.15,2013-09-07 09:06:00,
2013-09-07 05:07:00,58.0,56.0,30.10,SW,228,1.0,3.0,93,0.00,,,0.00,Wunderground v.1.15,2013-09-07 09:07:00,
2013-09-07 05:08:00,58.0,56.0,30.10,SW,228,1.0,3.0,93,0.00,,,0.00,Wunderground v.1.15,2013-09-07 09:08:00,
2013-09-07 05:09:00,58.0,56.0,30.10,SW,229,0.0,3.0,93,0.00,,,0.00,Wunderground v.1.15,2013-09-07 09:09:00,
2013-09-07 05:10:00,57.9,55.9,30.10,SW,229,0.0,1.0,93,0.00,,,0.00,Wunderground v.1.15,2013-09-07 09:10:00,
2013-09-07 05:11:00,57.9,55.9,30.10,SW,228,0.0,1.0,93,0.00,,,0.00,Wunderground v.1.15,2013-09-07 09:11:00,
2013-09-07 05:12:00,57.9,55.9,30.10,SW,228,0.0,1.0,93,0.00,,,0.00,Wunderground v.1.15,2013-09-07 09:12:00,
2013-09-07 05:13:00,57.9,55.9,30.10,SW,228,0.0,1.0,93,0.00,,,0.00,Wunderground v.1.15,2013-09-07 09:13:00,
2013-09-07 05:14:00,57.8,55.8,30.10,SW,228,0.0,1.0,93,0.00,,,0.00,Wunderground v.1.15,2013-09-07 09:14:00,
2013-09-07 05:16:00,57.8,55.8,30.10,SW,228,0.0,1.0,93,0.00,,,0.00,Wunderground v.1.15,2013-09-07 09:16:00,
2013-09-07 05:17:00,57.8,55.8,30.10,SW,229,0.0,1.0,93,0.00,,,0.00,Wunderground v.1.15,2013-09-07 09:17:00,
2013-09-07 05:18:00,57.8,55.8,30.10,SW,228,0.0,1.0,93,0.00,,,0.00,Wunderground v.1.15,2013-09-07 09:18:00,
2013-09-07 05:19:00,57.8,55.8,30.10,SW,229,0.0,1.0,93,0.00,,,0.00,Wunderground v.1.15,2013-09-07 09:19:00,
2013-09-07 05:21:00,57.7,55.7,30.10,SW,229,0.0,1.0,93,0.00,,,0.00,Wunderground v.1.15,2013-09-07 09:21:00,
2013-09-07 05:22:00,57.7,55.7,30.10,SW,228,1.0,1.0,93,0.00,,,0.00,Wunderground v.1.15,2013-09-07 09:22:00,
2013-09-07 05:23:00,57.6,55.6,30.10,SW,229,0.0,1.0,93,0.00,,,0.00,Wunderground v.1.15,2013-09-07 09:23:00,
2013-09-07 05:24:00,57.6,55.6,30.10,SW,228,0.0,1.0,93,0.00,,,0.00,Wunderground v.1.15,2013-09-07 09:24:00,
2013-09-07 05:25:00,57.6,55.6,30.10,SW,228,0.0,1.0,93,0.00,,,0.00,Wunderground v.1.15,2013-09-07 09:25:00,
2013-09-07 05:26:00,57.5,55.5,30.10,SW,228,0.0,1.0,93,0.00,,,0.00,Wunderground v.1.15,2013-09-07 09:26:00,
2013-09-07 05:27:00,57.5,55.5,30.10,SW,228,0.0,1.0,93,0.00,,,0.00,Wunderground v.1.15,2013-09-07 09:27:00,
2013-09-07 05:28:00,57.5,55.5,30.10,SW,228,0.0,1.0,93,0.00,,,0.00,Wunderground v.1.15,2013-09-07 09:28:00,
2013-09-07 05:29:00,57.4,55.4,30.10,SW,228,0.0,1.0,93,0.00,,,0.00,Wunderground v.1.15,2013-09-07 09:29:00,
2013-09-07 05:30:00,57.4,55.4,30.10,SW,228,0.0,0.0,93,0.00,,,0.00,Wunderground v.1.15,2013-09-07 09:30:00,
2013-09-07 05:31:00,57.4,55.4,30.10,SW,228,0.0,0.0,93,0.00,,,0.00,Wunderground v.1.15,2013-09-07 09:31:00,
2013-09-07 05:32:00,57.4,55.4,30.10,SW,228,0.0,0.0,93,0.00,,,0.00,Wunderground v.1.15,2013-09-07 09:32:00,
2013-09-07 05:33:00,57.4,55.7,30.10,SW,228,0.0,0.0,94,0.00,,,0.00,Wunderground v.1.15,2013-09-07 09:33:00,
2013-09-07 05:35:00,57.3,55.6,30.10,SW,228,0.0,0.0,94,0.00,,,0.00,Wunderground v.1.15,2013-09-07 09:35:00,
2013-09-07 05:36:00,57.3,55.6,30.10,SW,228,0.0,0.0,94,0.00,,,0.00,Wunderground v.1.15,2013-09-07 09:36:00,
2013-09-07 05:37:00,57.2,55.5,30.10,SW,229,0.0,0.0,94,0.00,,,0.00,Wunderground v.1.15,2013-09-07 09:37:00,
2013-09-07 05:38:00,57.2,55.2,30.10,SW,228,0.0,0.0,93,0.00,,,0.00,Wunderground v.1.15,2013-09-07 09:38:00,
2013-09-07 05:40:00,57.2,55.2,30.10,SW,228,0.0,0.0,93,0.00,,,0.00,Wunderground v.1.15,2013-09-07 09:40:00,
2013-09-07 05:42:00,57.1,55.4,30.10,SW,228,0.0,0.0,94,0.00,,,0.00,Wunderground v.1.15,2013-09-07 09:42:00,
2013-09-07 05:43:00,57.0,55.3,30.10,SW,229,0.0,0.0,94,0.00,,,0.00,Wunderground v.1.15,2013-09-07 09:43:00,
2013-09-07 05:45:00,57.1,55.4,30.10,SW,228,0.0,0.0,94,0.00,,,0.00,Wunderground v.1.15,2013-09-07 09:45:00,
2013-09-07 05:47:00,57.1,55.7,30.10,SW,228,0.0,0.0,95,0.00,,,0.00,Wunderground v.1.15,2013-09-07 09:47:00,
2013-09-07 05:48:00,57.0,55.6,30.10,SW,228,0.0,0.0,95,0.00,,,0.00,Wunderground v.1.15,2013-09-07 09:48:00,
2013-09-07 05:50:00,57.0,55.6,30.10,SW,228,0.0,0.0,95,0.00,,,0.00,Wunderground v.1.15,2013-09-07 09:50:00,
2013-09-07 05:52:00,57.0,55.6,30.10,SW,228,0.0,0.0,95,0.00,,,0.00,Wunderground v.1.15,2013-09-07 09:52:00,
2013-09-07 05:53:00,57.0,55.6,30.10,SW,228,0.0,0.0,95,0.00,,,0.00,Wunderground v.1.15,2013-09-07 09:53:00,
2013-09-07 05:55:00,57.0,55.6,30.10,SW,228,0.0,0.0,95,0.00,,,0.00,Wunderground v.1.15,2013-09-07 09:55:00,
2013-09-07 05:57:00,57.1,55.7,30.10,SW,228,0.0,0.0,95,0.00,,,0.00,Wunderground v.1.15,2013-09-07 09:57:00,
2013-09-07 05:58:00,57.2,55.8,30.10,SW,229,0.0,0.0,95,0.00,,,0.00,Wunderground v.1.15,2013-09-07 09:58:00,
2013-09-07 06:00:00,57.2,55.8,30.10,SW,228,0.0,0.0,95,0.00,,,0.00,Wunderground v.1.15,2013-09-07 10:00:00,
2013-09-07 06:01:00,57.2,55.8,30.10,SW,228,0.0,0.0,95,0.00,,,0.00,Wunderground v.1.15,2013-09-07 10:01:00,
2013-09-07 06:02:00,57.2,55.8,30.10,SW,229,0.0,0.0,95,0.00,,,0.00,Wunderground v.1.15,2013-09-07 10:02:00,
2013-09-07 06:03:00,57.2,55.8,30.10,SW,228,0.0,0.0,95,0.00,,,0.00,Wunderground v.1.15,2013-09-07 10:03:00,
2013-09-07 06:05:00,57.2,55.8,30.10,SW,228,0.0,0.0,95,0.00,,,0.00,Wunderground v.1.15,2013-09-07 10:05:00,
2013-09-07 06:06:00,57.3,55.9,30.10,SW,228,0.0,0.0,95,0.00,,,0.00,Wunderground v.1.15,2013-09-07 10:06:00,
2013-09-07 06:07:00,57.3,55.9,30.10,SW,228,0.0,0.0,95,0.00,,,0.00,Wunderground v.1.15,2013-09-07 10:07:00,
2013-09-07 06:08:00,57.3,55.9,30.10,SW,228,0.0,0.0,95,0.00,,,0.00,Wunderground v.1.15,2013-09-07 10:08:00,
2013-09-07 06:10:00,57.4,56.0,30.11,SW,228,0.0,0.0,95,0.00,,,0.00,Wunderground v.1.15,2013-09-07 10:10:00,
2013-09-07 06:11:00,57.4,56.0,30.11,SW,229,0.0,0.0,95,0.00,,,0.00,Wunderground v.1.15,2013-09-07 10:11:00,
2013-09-07 06:12:00,57.4,55.7,30.11,SW,228,0.0,0.0,94,0.00,,,0.00,Wunderground v.1.15,2013-09-07 10:12:00,
2013-09-07 06:13:00,57.4,55.7,30.11,SW,228,0.0,0.0,94,0.00,,,0.00,Wunderground v.1.15,2013-09-07 10:13:00,
2013-09-07 06:15:00,57.4,55.7,30.11,SW,228,0.0,0.0,94,0.00,,,0.00,Wunderground v.1.15,2013-09-07 10:15:00,
2013-09-07 06:16:00,57.4,55.7,30.11,SW,228,0.0,0.0,94,0.00,,,0.00,Wunderground v.1.15,2013-09-07 10:16:00,
2013-09-07 06:17:00,57.4,55.7,30.11,SW,228,0.0,0.0,94,0.00,,,0.00,Wunderground v.1.15,2013-09-07 10:17:00,
2013-09-07 06:18:00,57.3,55.6,30.11,SW,228,0.0,0.0,94,0.00,,,0.00,Wunderground v.1.15,2013-09-07 10:18:00,
2013-09-07 06:20:00,57.3,55.6,30.11,SW,228,0.0,0.0,94,0.00,,,0.00,Wunderground v.1.15,2013-09-07 10:20:00,
2013-09-07 06:22:00,57.3,55.9,30.11,SW,229,0.0,0.0,95,0.00,,,0.00,Wunderground v.1.15,2013-09-07 10:22:00,
2013-09-07 06:23:00,57.4,56.0,30.11,SW,229,0.0,0.0,95,0.00,,,0.00,Wunderground v.1.15,2013-09-07 10:23:00,
2013-09-07 06:25:00,57.4,55.7,30.11,SW,228,0.0,0.0,94,0.00,,,0.00,Wunderground v.1.15,2013-09-07 10:25:00,
2013-09-07 06:28:00,57.3,55.6,30.11,SW,228,0.0,0.0,94,0.00,,,0.00,Wunderground v.1.15,2013-09-07 10:28:00,
2013-09-07 06:29:00,57.3,55.6,30.12,SW,229,0.0,0.0,94,0.00,,,0.00,Wunderground v.1.15,2013-09-07 10:29:00,
2013-09-07 06:30:00,57.3,55.6,30.12,SW,228,0.0,0.0,94,0.00,,,0.00,Wunderground v.1.15,2013-09-07 10:30:00,
2013-09-07 06:33:00,57.3,55.6,30.12,SW,228,0.0,1.0,94,0.00,,,0.00,Wunderground v.1.15,2013-09-07 10:33:00,
2013-09-07 06:34:00,57.2,55.5,30.12,SW,228,0.0,1.0,94,0.00,,,0.00,Wunderground v.1.15,2013-09-07 10:34:00,
2013-09-07 06:35:00,57.2,55.5,30.12,SW,228,0.0,1.0,94,0.00,,,0.00,Wunderground v.1.15,2013-09-07 10:35:00,
2013-09-07 06:38:00,57.2,55.5,30.12,SW,228,0.0,1.0,94,0.00,,,0.00,Wunderground v.1.15,2013-09-07 10:38:00,
2013-09-07 06:39:00,57.2,55.5,30.12,SW,228,0.0,1.0,94,0.00,,,0.00,Wunderground v.1.15,2013-09-07 10:39:00,
2013-09-07 06:40:00,57.1,55.4,30.12,SW,228,0.0,0.0,94,0.00,,,0.00,Wunderground v.1.15,2013-09-07 10:40:00,
2013-09-07 06:43:00,57.1,55.4,30.12,SW,229,0.0,0.0,94,0.00,,,0.00,Wunderground v.1.15,2013-09-07 10:43:00,
2013-09-07 06:45:00,57.1,55.4,30.12,SW,228,0.0,1.0,94,0.00,,,0.00,Wunderground v.1.15,2013-09-07 10:45:00,
2013-09-07 06:48:00,57.2,55.5,30.12,SW,229,0.0,1.0,94,0.00,,,0.00,Wunderground v.1.15,2013-09-07 10:48:00,
2013-09-07 06:49:00,57.2,55.5,30.12,SW,228,0.0,1.0,94,0.00,,,0.00,Wunderground v.1.15,2013-09-07 10:49:00,
2013-09-07 06:50:00,57.1,55.4,30.12,SW,229,0.0,0.0,94,0.00,,,0.00,Wunderground v.1.15,2013-09-07 10:50:00,
2013-09-07 06:53:00,57.2,55.5,30.12,SW,229,0.0,0.0,94,0.00,,,0.00,Wunderground v.1.15,2013-09-07 10:53:00,
2013-09-07 06:54:00,57.1,55.4,30.12,SW,228,0.0,1.0,94,0.00,,,0.00,Wunderground v.1.15,2013-09-07 10:54:00,
2013-09-07 06:55:00,57.1,55.4,30.12,SW,228,1.0,1.0,94,0.00,,,0.00,Wunderground v.1.15,2013-09-07 10:55:00,
2013-09-07 06:56:00,57.1,55.4,30.12,SW,228,0.0,1.0,94,0.00,,,0.00,Wunderground v.1.15,2013-09-07 10:56:00,
2013-09-07 06:58:00,57.2,55.5,30.12,SW,228,0.0,1.0,94,0.00,,,0.00,Wunderground v.1.15,2013-09-07 10:58:00,
2013-09-07 06:59:00,57.2,55.5,30.12,SW,228,0.0,1.0,94,0.00,,,0.00,Wunderground v.1.15,2013-09-07 10:59:00,
2013-09-07 07:00:00,57.2,55.5,30.12,SW,228,0.0,0.0,94,0.00,,,0.00,Wunderground v.1.15,2013-09-07 11:00:00,
2013-09-07 07:01:00,57.2,55.5,30.12,SW,228,0.0,0.0,94,0.00,,,0.00,Wunderground v.1.15,2013-09-07 11:01:00,
2013-09-07 07:03:00,57.2,55.5,30.12,SW,228,0.0,0.0,94,0.00,,,0.00,Wunderground v.1.15,2013-09-07 11:03:00,
2013-09-07 07:04:00,57.2,55.5,30.12,SW,229,0.0,1.0,94,0.00,,,0.00,Wunderground v.1.15,2013-09-07 11:04:00,
2013-09-07 07:05:00,57.3,55.6,30.12,SW,228,1.0,1.0,94,0.00,,,0.00,Wunderground v.1.15,2013-09-07 11:05:00,
2013-09-07 07:06:00,57.3,55.6,30.12,SW,228,1.0,1.0,94,0.00,,,0.00,Wunderground v.1.15,2013-09-07 11:06:00,
2013-09-07 07:08:00,57.4,55.7,30.13,SW,229,0.0,1.0,94,0.00,,,0.00,Wunderground v.1.15,2013-09-07 11:08:00,
2013-09-07 07:10:00,57.5,56.1,30.13,SW,229,1.0,1.0,95,0.00,,,0.00,Wunderground v.1.15,2013-09-07 11:10:00,
2013-09-07 07:11:00,57.6,56.2,30.12,SW,228,1.0,1.0,95,0.00,,,0.00,Wunderground v.1.15,2013-09-07 11:11:00,
2013-09-07 07:13:00,57.7,56.3,30.12,SW,228,2.0,2.0,95,0.00,,,0.00,Wunderground v.1.15,2013-09-07 11:13:00,
2013-09-07 07:15:00,57.8,56.1,30.12,SW,228,0.0,2.0,94,0.00,,,0.00,Wunderground v.1.15,2013-09-07 11:15:00,
2013-09-07 07:16:00,57.9,56.2,30.12,SW,229,1.0,2.0,94,0.00,,,0.00,Wunderground v.1.15,2013-09-07 11:16:00,
2013-09-07 07:17:00,57.9,56.2,30.12,SW,228,0.0,2.0,94,0.00,,,0.00,Wunderground v.1.15,2013-09-07 11:17:00,
2013-09-07 07:18:00,57.9,56.2,30.12,SW,228,0.0,2.0,94,0.00,,,0.00,Wunderground v.1.15,2013-09-07 11:18:00,
2013-09-07 07:20:00,58.0,56.3,30.13,SW,229,1.0,1.0,94,0.00,,,0.00,Wunderground v.1.15,2013-09-07 11:20:00,
2013-09-07 07:21:00,58.1,56.4,30.13,SW,228,0.0,1.0,94,0.00,,,0.00,Wunderground v.1.15,2013-09-07 11:21:00,
2013-09-07 07:22:00,58.1,56.4,30.13,SW,228,0.0,1.0,94,0.00,,,0.00,Wunderground v.1.15,2013-09-07 11:22:00,
2013-09-07 07:23:00,58.2,56.5,30.13,SW,228,0.0,1.0,94,0.00,,,0.00,Wunderground v.1.15,2013-09-07 11:23:00,
2013-09-07 07:25:00,58.3,56.6,30.12,SW,229,0.0,1.0,94,0.00,,,0.00,Wunderground v.1.15,2013-09-07 11:25:00,
2013-09-07 07:26:00,58.3,56.6,30.12,SW,228,0.0,1.0,94,0.00,,,0.00,Wunderground v.1.15,2013-09-07 11:26:00,
2013-09-07 07:27:00,58.3,56.6,30.12,SW,229,0.0,1.0,94,0.00,,,0.00,Wunderground v.1.15,2013-09-07 11:27:00,
2013-09-07 07:28:00,58.3,56.6,30.12,SW,228,0.0,1.0,94,0.00,,,0.00,Wunderground v.1.15,2013-09-07 11:28:00,
2013-09-07 07:30:00,58.5,56.8,30.12,SW,228,0.0,0.0,94,0.00,,,0.00,Wunderground v.1.15,2013-09-07 11:30:00,
2013-09-07 07:31:00,58.5,56.8,30.12,SW,228,0.0,0.0,94,0.00,,,0.00,Wunderground v.1.15,2013-09-07 11:31:00,
2013-09-07 07:32:00,58.6,56.6,30.13,SW,228,0.0,1.0,93,0.00,,,0.00,Wunderground v.1.15,2013-09-07 11:32:00,
2013-09-07 07:33:00,58.6,56.6,30.13,SW,228,0.0,1.0,93,0.00,,,0.00,Wunderground v.1.15,2013-09-07 11:33:00,
2013-09-07 07:35:00,58.7,56.7,30.13,SW,229,0.0,1.0,93,0.00,,,0.00,Wunderground v.1.15,2013-09-07 11:35:00,
2013-09-07 07:36:00,58.7,56.7,30.13,SW,228,0.0,1.0,93,0.00,,,0.00,Wunderground v.1.15,2013-09-07 11:36:00,
2013-09-07 07:37:00,58.7,56.7,30.13,SW,229,0.0,1.0,93,0.00,,,0.00,Wunderground v.1.15,2013-09-07 11:37:00,
2013-09-07 07:38:00,58.8,56.8,30.13,SW,229,0.0,1.0,93,0.00,,,0.00,Wunderground v.1.15,2013-09-07 11:38:00,
2013-09-07 07:40:00,58.9,56.9,30.13,SW,229,0.0,0.0,93,0.00,,,0.00,Wunderground v.1.15,2013-09-07 11:40:00,
2013-09-07 07:42:00,59.0,57.0,30.13,SW,229,0.0,0.0,93,0.00,,,0.00,Wunderground v.1.15,2013-09-07 11:42:00,
2013-09-07 07:43:00,59.0,57.0,30.13,SW,228,0.0,0.0,93,0.00,,,0.00,Wunderground v.1.15,2013-09-07 11:43:00,
2013-09-07 07:45:00,59.3,57.3,30.13,SW,228,0.0,0.0,93,0.00,,,0.00,Wunderground v.1.15,2013-09-07 11:45:00,
2013-09-07 07:47:00,59.4,57.4,30.13,SW,229,0.0,0.0,93,0.00,,,0.00,Wunderground v.1.15,2013-09-07 11:47:00,
2013-09-07 07:48:00,59.4,57.4,30.13,SW,229,0.0,0.0,93,0.00,,,0.00,Wunderground v.1.15,2013-09-07 11:48:00,
2013-09-07 07:51:00,59.7,57.4,30.13,SW,229,0.0,1.0,92,0.00,,,0.00,Wunderground v.1.15,2013-09-07 11:51:00,
2013-09-07 07:52:00,59.8,57.5,30.13,SW,228,1.0,1.0,92,0.00,,,0.00,Wunderground v.1.15,2013-09-07 11:52:00,
2013-09-07 07:53:00,59.8,57.5,30.13,SW,228,0.0,1.0,92,0.00,,,0.00,Wunderground v.1.15,2013-09-07 11:53:00,
2013-09-07 07:56:00,60.0,57.7,30.13,SW,228,0.0,1.0,92,0.00,,,0.00,Wunderground v.1.15,2013-09-07 11:56:00,
2013-09-07 07:58:00,60.1,57.8,30.13,SW,228,0.0,1.0,92,0.00,,,0.00,Wunderground v.1.15,2013-09-07 11:58:00,
2013-09-07 08:01:00,60.4,58.1,30.13,SW,228,1.0,1.0,92,0.00,,,0.00,Wunderground v.1.15,2013-09-07 12:01:00,
2013-09-07 08:03:00,60.5,58.2,30.13,SW,228,1.0,1.0,92,0.00,,,0.00,Wunderground v.1.15,2013-09-07 12:03:00,
2013-09-07 08:06:00,60.7,58.1,30.13,SW,228,0.0,2.0,91,0.00,,,0.00,Wunderground v.1.15,2013-09-07 12:06:00,
2013-09-07 08:08:00,60.7,58.1,30.13,SW,228,0.0,2.0,91,0.00,,,0.00,Wunderground v.1.15,2013-09-07 12:08:00,
2013-09-07 08:09:00,60.7,58.1,30.13,SW,228,0.0,2.0,91,0.00,,,0.00,Wunderground v.1.15,2013-09-07 12:09:00,
2013-09-07 08:11:00,60.9,58.3,30.13,SW,229,0.0,0.0,91,0.00,,,0.00,Wunderground v.1.15,2013-09-07 12:11:00,
2013-09-07 08:13:00,61.0,58.4,30.13,SW,228,0.0,0.0,91,0.00,,,0.00,Wunderground v.1.15,2013-09-07 12:13:00,
2013-09-07 08:14:00,61.1,58.5,30.13,SW,228,1.0,1.0,91,0.00,,,0.00,Wunderground v.1.15,2013-09-07 12:14:00,
2013-09-07 08:16:00,61.2,58.6,30.13,SW,228,1.0,2.0,91,0.00,,,0.00,Wunderground v.1.15,2013-09-07 12:16:00,
2013-09-07 08:18:00,61.3,58.7,30.13,SW,228,0.0,2.0,91,0.00,,,0.00,Wunderground v.1.15,2013-09-07 12:18:00,
2013-09-07 08:19:00,61.3,58.7,30.13,SW,228,0.0,2.0,91,0.00,,,0.00,Wunderground v.1.15,2013-09-07 12:19:00,
2013-09-07 08:21:00,61.4,58.7,30.13,SW,228,0.0,0.0,91,0.00,,,0.00,Wunderground v.1.15,2013-09-07 12:21:00,
2013-09-07 08:23:00,61.6,58.9,30.13,SW,228,0.0,0.0,91,0.00,,,0.00,Wunderground v.1.15,2013-09-07 12:23:00,
2013-09-07 08:24:00,61.7,59.0,30.13,SW,228,2.0,2.0,91,0.00,,,0.00,Wunderground v.1.15,2013-09-07 12:24:00,
2013-09-07 08:26:00,61.8,58.8,30.13,SW,228,1.0,2.0,90,0.00,,,0.00,Wunderground v.1.15,2013-09-07 12:26:00,
2013-09-07 08:28:00,61.9,58.9,30.12,SW,228,0.0,2.0,90,0.00,,,0.00,Wunderground v.1.15,2013-09-07 12:28:00,
2013-09-07 08:29:00,62.0,59.0,30.12,SW,228,0.0,2.0,90,0.00,,,0.00,Wunderground v.1.15,2013-09-07 12:29:00,
2013-09-07 08:30:00,62.0,59.0,30.12,SW,228,0.0,0.0,90,0.00,,,0.00,Wunderground v.1.15,2013-09-07 12:30:00,
2013-09-07 08:31:00,62.1,58.8,30.12,SW,228,0.0,0.0,89,0.00,,,0.00,Wunderground v.1.15,2013-09-07 12:31:00,
2013-09-07 08:33:00,62.2,58.9,30.12,SW,229,0.0,0.0,89,0.00,,,0.00,Wunderground v.1.15,2013-09-07 12:33:00,
2013-09-07 08:34:00,62.2,59.2,30.12,SW,228,0.0,0.0,90,0.00,,,0.00,Wunderground v.1.15,2013-09-07 12:34:00,
2013-09-07 08:35:00,62.3,59.3,30.12,SW,229,0.0,0.0,90,0.00,,,0.00,Wunderground v.1.15,2013-09-07 12:35:00,
2013-09-07 08:36:00,62.4,59.1,30.12,SW,229,0.0,0.0,89,0.00,,,0.00,Wunderground v.1.15,2013-09-07 12:36:00,
2013-09-07 08:38:00,62.6,59.3,30.12,SW,229,0.0,1.0,89,0.00,,,0.00,Wunderground v.1.15,2013-09-07 12:38:00,
2013-09-07 08:39:00,62.7,59.4,30.12,SW,230,0.0,1.0,89,0.00,,,0.00,Wunderground v.1.15,2013-09-07 12:39:00,
2013-09-07 08:40:00,62.7,59.4,30.12,SW,229,0.0,0.0,89,0.00,,,0.00,Wunderground v.1.15,2013-09-07 12:40:00,
2013-09-07 08:41:00,62.9,59.6,30.12,SW,229,0.0,0.0,89,0.00,,,0.00,Wunderground v.1.15,2013-09-07 12:41:00,
2013-09-07 08:43:00,63.1,59.5,30.12,SW,229,0.0,1.0,88,0.00,,,0.00,Wunderground v.1.15,2013-09-07 12:43:00,
2013-09-07 08:45:00,63.3,60.0,30.12,SW,229,0.0,1.0,89,0.00,,,0.00,Wunderground v.1.15,2013-09-07 12:45:00,
2013-09-07 08:46:00,63.7,60.1,30.12,SW,229,1.0,1.0,88,0.00,,,0.00,Wunderground v.1.15,2013-09-07 12:46:00,
2013-09-07 08:48:00,63.9,60.3,30.12,SW,229,0.0,2.0,88,0.00,,,0.00,Wunderground v.1.15,2013-09-07 12:48:00,
2013-09-07 08:50:00,64.1,60.2,30.12,SW,229,0.0,0.0,87,0.00,,,0.00,Wunderground v.1.15,2013-09-07 12:50:00,
2013-09-07 08:52:00,64.2,59.9,30.12,SW,229,1.0,1.0,86,0.00,,,0.00,Wunderground v.1.15,2013-09-07 12:52:00,
2013-09-07 08:53:00,64.5,60.5,30.12,SW,229,1.0,3.0,87,0.00,,,0.00,Wunderground v.1.15,2013-09-07 12:53:00,
2013-09-07 08:55:00,64.6,60.0,30.12,SW,229,0.0,3.0,85,0.00,,,0.00,Wunderground v.1.15,2013-09-07 12:55:00,
2013-09-07 08:56:00,64.7,60.1,30.12,SW,230,0.0,3.0,85,0.00,,,0.00,Wunderground v.1.15,2013-09-07 12:56:00,
2013-09-07 08:57:00,64.8,60.5,30.12,SW,229,1.0,3.0,86,0.00,,,0.00,Wunderground v.1.15,2013-09-07 12:57:00,
2013-09-07 08:58:00,65.0,60.4,30.12,SW,229,0.0,3.0,85,0.00,,,0.00,Wunderground v.1.15,2013-09-07 12:58:00,
2013-09-07 08:59:00,65.0,60.4,30.12,SW,230,0.0,3.0,85,0.00,,,0.00,Wunderground v.1.15,2013-09-07 12:59:00,
2013-09-07 09:00:00,65.2,60.6,30.12,SW,229,0.0,1.0,85,0.00,,,0.00,Wunderground v.1.15,2013-09-07 13:00:00,
2013-09-07 09:01:00,65.2,60.2,30.12,SW,230,2.0,3.0,84,0.00,,,0.00,Wunderground v.1.15,2013-09-07 13:01:00,
2013-09-07 09:02:00,65.2,59.9,30.12,SW,228,2.0,3.0,83,0.00,,,0.00,Wunderground v.1.15,2013-09-07 13:02:00,
2013-09-07 09:03:00,65.3,60.3,30.12,SW,229,1.0,3.0,84,0.00,,,0.00,Wunderground v.1.15,2013-09-07 13:03:00,
2013-09-07 09:04:00,65.3,60.3,30.12,SW,230,1.0,3.0,84,0.00,,,0.00,Wunderground v.1.15,2013-09-07 13:04:00,
2013-09-07 09:05:00,65.5,59.9,30.12,SW,228,2.0,4.0,82,0.00,,,0.00,Wunderground v.1.15,2013-09-07 13:05:00,
2013-09-07 09:06:00,65.6,60.3,30.12,SW,229,0.0,4.0,83,0.00,,,0.00,Wunderground v.1.15,2013-09-07 13:06:00,
2013-09-07 09:07:00,65.6,60.6,30.12,SW,229,0.0,4.0,84,0.00,,,0.00,Wunderground v.1.15,2013-09-07 13:07:00,
2013-09-07 09:08:00,65.8,60.5,30.12,SW,228,4.0,4.0,83,0.00,,,0.00,Wunderground v.1.15,2013-09-07 13:08:00,
2013-09-07 09:09:00,65.8,60.5,30.12,SW,230,3.0,4.0,83,0.00,,,0.00,Wunderground v.1.15,2013-09-07 13:09:00,
2013-09-07 09:10:00,65.9,60.2,30.12,SW,229,1.0,3.0,82,0.00,,,0.00,Wunderground v.1.15,2013-09-07 13:10:00,
2013-09-07 09:11:00,66.2,60.9,30.12,SW,229,2.0,3.0,83,0.00,,,0.00,Wunderground v.1.15,2013-09-07 13:11:00,
2013-09-07 09:12:00,66.2,60.9,30.12,SW,229,3.0,3.0,83,0.00,,,0.00,Wunderground v.1.15,2013-09-07 13:12:00,
2013-09-07 09:14:00,66.6,60.9,30.12,SW,229,3.0,3.0,82,0.00,,,0.00,Wunderground v.1.15,2013-09-07 13:14:00,
2013-09-07 09:15:00,67.1,60.7,30.12,SW,230,1.0,4.0,80,0.00,,,0.00,Wunderground v.1.15,2013-09-07 13:15:00,
2013-09-07 09:17:00,67.4,61.0,30.12,SW,229,1.0,4.0,80,0.00,,,0.00,Wunderground v.1.15,2013-09-07 13:17:00,
2013-09-07 09:19:00,67.6,60.9,30.12,SW,229,1.0,4.0,79,0.00,,,0.00,Wunderground v.1.15,2013-09-07 13:19:00,
2013-09-07 09:21:00,67.9,61.5,30.12,SW,229,2.0,4.0,80,0.00,,,0.00,Wunderground v.1.15,2013-09-07 13:21:00,
2013-09-07 09:22:00,67.9,61.1,30.12,SW,229,1.0,4.0,79,0.00,,,0.00,Wunderground v.1.15,2013-09-07 13:22:00,
2013-09-07 09:24:00,68.0,61.2,30.12,SW,229,1.0,4.0,79,0.00,,,0.00,Wunderground v.1.15,2013-09-07 13:24:00,
2013-09-07 09:26:00,68.1,61.0,30.12,SW,229,3.0,4.0,78,0.00,,,0.00,Wunderground v.1.15,2013-09-07 13:26:00,
2013-09-07 09:27:00,67.8,60.0,30.12,SW,229,1.0,4.0,76,0.00,,,0.00,Wunderground v.1.15,2013-09-07 13:27:00,
2013-09-07 09:28:00,67.7,59.9,30.12,SW,229,0.0,4.0,76,0.00,,,0.00,Wunderground v.1.15,2013-09-07 13:28:00,
2013-09-07 09:29:00,67.6,60.5,30.12,SW,229,0.0,4.0,78,0.00,,,0.00,Wunderground v.1.15,2013-09-07 13:29:00,
2013-09-07 09:31:00,67.2,60.1,30.12,SW,229,0.0,2.0,78,0.00,,,0.00,Wunderground v.1.15,2013-09-07 13:31:00,
2013-09-07 09:32:00,67.1,60.4,30.12,SW,229,0.0,2.0,79,0.00,,,0.00,Wunderground v.1.15,2013-09-07 13:32:00,
2013-09-07 09:33:00,67.1,60.4,30.12,SW,229,0.0,2.0,79,0.00,,,0.00,Wunderground v.1.15,2013-09-07 13:33:00,
2013-09-07 09:34:00,67.2,60.5,30.12,SW,230,2.0,2.0,79,0.00,,,0.00,Wunderground v.1.15,2013-09-07 13:34:00,
2013-09-07 09:36:00,67.1,60.4,30.12,SW,229,1.0,4.0,79,0.00,,,0.00,Wunderground v.1.15,2013-09-07 13:36:00,
2013-09-07 09:37:00,67.2,60.5,30.12,SW,229,1.0,4.0,79,0.00,,,0.00,Wunderground v.1.15,2013-09-07 13:37:00,
2013-09-07 09:38:00,67.3,60.6,30.12,SW,229,0.0,4.0,79,0.00,,,0.00,Wunderground v.1.15,2013-09-07 13:38:00,
2013-09-07 09:39:00,67.4,60.7,30.12,SW,229,1.0,4.0,79,0.00,,,0.00,Wunderground v.1.15,2013-09-07 13:39:00,
2013-09-07 09:41:00,67.6,60.5,30.12,SW,229,0.0,1.0,78,0.00,,,0.00,Wunderground v.1.15,2013-09-07 13:41:00,
2013-09-07 09:42:00,67.6,60.5,30.12,SW,229,1.0,1.0,78,0.00,,,0.00,Wunderground v.1.15,2013-09-07 13:42:00,
2013-09-07 09:43:00,67.6,60.9,30.12,SW,229,0.0,1.0,79,0.00,,,0.00,Wunderground v.1.15,2013-09-07 13:43:00,
2013-09-07 09:44:00,67.8,61.4,30.12,SW,229,1.0,2.0,80,0.00,,,0.00,Wunderground v.1.15,2013-09-07 13:44:00,
2013-09-07 09:46:00,68.3,61.2,30.12,SW,229,0.0,2.0,78,0.00,,,0.00,Wunderground v.1.15,2013-09-07 13:46:00,
2013-09-07 09:47:00,68.5,61.4,30.12,SW,229,2.0,3.0,78,0.00,,,0.00,Wunderground v.1.15,2013-09-07 13:47:00,
2013-09-07 09:48:00,68.6,61.5,30.12,SW,229,1.0,3.0,78,0.00,,,0.00,Wunderground v.1.15,2013-09-07 13:48:00,
2013-09-07 09:49:00,68.6,61.1,30.12,SW,229,0.0,3.0,77,0.00,,,0.00,Wunderground v.1.15,2013-09-07 13:49:00,
2013-09-07 09:52:00,68.8,60.6,30.12,SW,229,1.0,3.0,75,0.00,,,0.00,Wunderground v.1.15,2013-09-07 13:52:00,
2013-09-07 09:53:00,68.8,60.9,30.12,SW,229,4.0,4.0,76,0.00,,,0.00,Wunderground v.1.15,2013-09-07 13:53:00,
2013-09-07 09:54:00,68.8,60.9,30.11,SW,229,1.0,4.0,76,0.00,,,0.00,Wunderground v.1.15,2013-09-07 13:54:00,
2013-09-07 09:57:00,69.6,60.9,30.12,SW,229,4.0,4.0,74,0.00,,,0.00,Wunderground v.1.15,2013-09-07 13:57:00,
2013-09-07 09:58:00,69.6,60.9,30.12,SW,229,1.0,6.0,74,0.00,,,0.00,Wunderground v.1.15,2013-09-07 13:58:00,
2013-09-07 09:59:00,69.5,61.2,30.12,SW,229,2.0,6.0,75,0.00,,,0.00,Wunderground v.1.15,2013-09-07 13:59:00,
2013-09-07 10:02:00,69.4,60.4,30.12,SW,229,0.0,5.0,73,0.00,,,0.00,Wunderground v.1.15,2013-09-07 14:02:00,
2013-09-07 10:03:00,69.4,61.1,30.12,SW,229,1.0,5.0,75,0.00,,,0.00,Wunderground v.1.15,2013-09-07 14:03:00,
2013-09-07 10:04:00,69.5,61.2,30.12,SW,229,2.0,5.0,75,0.00,,,0.00,Wunderground v.1.15,2013-09-07 14:04:00,
2013-09-07 10:07:00,70.4,62.1,30.12,SW,229,0.0,5.0,75,0.00,,,0.00,Wunderground v.1.15,2013-09-07 14:07:00,
2013-09-07 10:09:00,70.7,61.2,30.12,SW,229,0.0,5.0,72,0.00,,,0.00,Wunderground v.1.15,2013-09-07 14:09:00,
2013-09-07 10:12:00,70.3,60.8,30.11,SW,229,2.0,3.0,72,0.00,,,0.00,Wunderground v.1.15,2013-09-07 14:12:00,
2013-09-07 10:14:00,69.9,60.8,30.12,SW,229,1.0,3.0,73,0.00,,,0.00,Wunderground v.1.15,2013-09-07 14:14:00,
2013-09-07 10:17:00,69.7,61.0,30.12,SW,229,0.0,3.0,74,0.00,,,0.00,Wunderground v.1.15,2013-09-07 14:17:00,
2013-09-07 10:19:00,69.6,60.9,30.12,SW,229,2.0,3.0,74,0.00,,,0.00,Wunderground v.1.15,2013-09-07 14:19:00,
2013-09-07 10:20:00,69.6,60.9,30.12,SW,229,0.0,1.0,74,0.00,,,0.00,Wunderground v.1.15,2013-09-07 14:20:00,
2013-09-07 10:22:00,69.8,61.5,30.12,SW,229,0.0,3.0,75,0.00,,,0.00,Wunderground v.1.15,2013-09-07 14:22:00,
2013-09-07 10:23:00,69.8,61.9,30.12,SW,229,0.0,3.0,76,0.00,,,0.00,Wunderground v.1.15,2013-09-07 14:23:00,
2013-09-07 10:24:00,69.9,61.2,30.12,SW,229,0.0,3.0,74,0.00,,,0.00,Wunderground v.1.15,2013-09-07 14:24:00,
2013-09-07 10:25:00,70.2,61.5,30.11,SW,229,1.0,3.0,74,0.00,,,0.00,Wunderground v.1.15,2013-09-07 14:25:00,
2013-09-07 10:28:00,70.5,61.4,30.11,SW,229,1.0,3.0,73,0.00,,,0.00,Wunderground v.1.15,2013-09-07 14:28:00,
2013-09-07 10:29:00,70.6,61.5,30.11,SW,229,4.0,4.0,73,0.00,,,0.00,Wunderground v.1.15,2013-09-07 14:29:00,
2013-09-07 10:30:00,70.6,61.1,30.11,SW,229,4.0,4.0,72,0.00,,,0.00,Wunderground v.1.15,2013-09-07 14:30:00,
2013-09-07 10:31:00,70.5,61.0,30.11,SW,229,0.0,4.0,72,0.00,,,0.00,Wunderground v.1.15,2013-09-07 14:31:00,
2013-09-07 10:33:00,70.5,61.4,30.11,SW,229,1.0,5.0,73,0.00,,,0.00,Wunderground v.1.15,2013-09-07 14:33:00,
2013-09-07 10:34:00,70.4,60.9,30.11,SW,229,1.0,5.0,72,0.00,,,0.00,Wunderground v.1.15,2013-09-07 14:34:00,
2013-09-07 10:35:00,70.5,61.4,30.12,SW,229,1.0,5.0,73,0.00,,,0.00,Wunderground v.1.15,2013-09-07 14:35:00,
2013-09-07 10:36:00,70.6,61.5,30.11,SW,229,2.0,5.0,73,0.00,,,0.00,Wunderground v.1.15,2013-09-07 14:36:00,
2013-09-07 10:38:00,70.6,61.1,30.11,SW,229,0.0,5.0,72,0.00,,,0.00,Wunderground v.1.15,2013-09-07 14:38:00,
2013-09-07 10:39:00,70.6,61.1,30.11,SW,229,3.0,5.0,72,0.00,,,0.00,Wunderground v.1.15,2013-09-07 14:39:00,
2013-09-07 10:40:00,70.8,61.3,30.11,SW,229,1.0,3.0,72,0.00,,,0.00,Wunderground v.1.15,2013-09-07 14:40:00,
2013-09-07 10:41:00,70.9,61.4,30.11,SW,229,1.0,3.0,72,0.00,,,0.00,Wunderground v.1.15,2013-09-07 14:41:00,
2013-09-07 10:43:00,71.2,61.7,30.11,SW,229,3.0,4.0,72,0.00,,,0.00,Wunderground v.1.15,2013-09-07 14:43:00,
2013-09-07 10:44:00,71.3,61.8,30.11,SW,229,2.0,4.0,72,0.00,,,0.00,Wunderground v.1.15,2013-09-07 14:44:00,
2013-09-07 10:45:00,71.4,61.5,30.11,SW,229,4.0,4.0,71,0.00,,,0.00,Wunderground v.1.15,2013-09-07 14:45:00,
2013-09-07 10:46:00,71.4,61.5,30.11,SW,229,2.0,4.0,71,0.00,,,0.00,Wunderground v.1.15,2013-09-07 14:46:00,
2013-09-07 10:48:00,71.4,61.5,30.11,SW,229,1.0,5.0,71,0.00,,,0.00,Wunderground v.1.15,2013-09-07 14:48:00,
2013-09-07 10:49:00,71.4,61.5,30.11,SW,229,1.0,5.0,71,0.00,,,0.00,Wunderground v.1.15,2013-09-07 14:49:00,
2013-09-07 10:50:00,71.8,61.9,30.11,SW,229,0.0,2.0,71,0.00,,,0.00,Wunderground v.1.15,2013-09-07 14:50:00,
2013-09-07 10:51:00,72.0,62.1,30.11,SW,229,2.0,2.0,71,0.00,,,0.00,Wunderground v.1.15,2013-09-07 14:51:00,
2013-09-07 10:53:00,72.4,62.1,30.11,SW,229,1.0,2.0,70,0.00,,,0.00,Wunderground v.1.15,2013-09-07 14:53:00,
2013-09-07 10:54:00,72.5,62.2,30.11,SW,229,0.0,2.0,70,0.00,,,0.00,Wunderground v.1.15,2013-09-07 14:54:00,
2013-09-07 10:55:00,73.0,62.6,30.11,SW,229,4.0,7.0,70,0.00,,,0.00,Wunderground v.1.15,2013-09-07 14:55:00,
2013-09-07 10:56:00,73.3,62.5,30.11,SW,229,4.0,7.0,69,0.00,,,0.00,Wunderground v.1.15,2013-09-07 14:56:00,
2013-09-07 10:57:00,73.3,62.1,30.11,SW,229,3.0,7.0,68,0.00,,,0.00,Wunderground v.1.15,2013-09-07 14:57:00,
2013-09-07 10:58:00,73.3,62.5,30.11,SW,229,1.0,7.0,69,0.00,,,0.00,Wunderground v.1.15,2013-09-07 14:58:00,
2013-09-07 10:59:00,73.4,62.2,30.11,SW,229,3.0,7.0,68,0.00,,,0.00,Wunderground v.1.15,2013-09-07 14:59:00,
2013-09-07 11:00:00,73.3,61.7,30.11,SW,229,3.0,6.0,67,0.00,,,0.00,Wunderground v.1.15,2013-09-07 15:00:00,
2013-09-07 11:02:00,73.1,61.5,30.11,SW,229,3.0,6.0,67,0.00,,,0.00,Wunderground v.1.15,2013-09-07 15:02:00,
2013-09-07 11:03:00,73.0,61.8,30.11,SW,229,2.0,6.0,68,0.00,,,0.00,Wunderground v.1.15,2013-09-07 15:03:00,
2013-09-07 11:04:00,73.0,61.8,30.11,SW,229,5.0,7.0,68,0.00,,,0.00,Wunderground v.1.15,2013-09-07 15:04:00,
2013-09-07 11:06:00,72.8,62.4,30.11,SW,229,0.0,7.0,70,0.00,,,0.00,Wunderground v.1.15,2013-09-07 15:06:00,
2013-09-07 11:08:00,73.3,62.9,30.11,SW,229,2.0,7.0,70,0.00,,,0.00,Wunderground v.1.15,2013-09-07 15:08:00,
2013-09-07 11:09:00,73.8,63.8,30.11,SW,229,2.0,7.0,71,0.00,,,0.00,Wunderground v.1.15,2013-09-07 15:09:00,
2013-09-07 11:11:00,74.5,63.7,30.11,SW,229,1.0,3.0,69,0.00,,,0.00,Wunderground v.1.15,2013-09-07 15:11:00,
2013-09-07 11:13:00,74.7,63.0,30.11,SW,229,6.0,6.0,67,0.00,,,0.00,Wunderground v.1.15,2013-09-07 15:13:00,
2013-09-07 11:14:00,74.5,62.8,30.11,SW,229,2.0,6.0,67,0.00,,,0.00,Wunderground v.1.15,2013-09-07 15:14:00,
2013-09-07 11:15:00,74.4,62.7,30.11,SW,229,4.0,6.0,67,0.00,,,0.00,Wunderground v.1.15,2013-09-07 15:15:00,
2013-09-07 11:16:00,74.2,62.5,30.11,SW,229,3.0,7.0,67,0.00,,,0.00,Wunderground v.1.15,2013-09-07 15:16:00,
2013-09-07 11:18:00,73.9,62.7,30.11,SW,229,1.0,7.0,68,0.00,,,0.00,Wunderground v.1.15,2013-09-07 15:18:00,
2013-09-07 11:19:00,73.9,63.5,30.11,SW,229,2.0,7.0,70,0.00,,,0.00,Wunderground v.1.15,2013-09-07 15:19:00,
2013-09-07 11:20:00,73.9,63.1,30.11,SW,229,0.0,3.0,69,0.00,,,0.00,Wunderground v.1.15,2013-09-07 15:20:00,
2013-09-07 11:21:00,74.0,63.2,30.11,SW,229,2.0,3.0,69,0.00,,,0.00,Wunderground v.1.15,2013-09-07 15:21:00,
2013-09-07 11:23:00,74.2,63.8,30.11,SW,229,4.0,5.0,70,0.00,,,0.00,Wunderground v.1.15,2013-09-07 15:23:00,
2013-09-07 11:24:00,74.2,63.4,30.11,SW,229,2.0,5.0,69,0.00,,,0.00,Wunderground v.1.15,2013-09-07 15:24:00,
2013-09-07 11:25:00,74.2,63.0,30.11,SW,229,3.0,5.0,68,0.00,,,0.00,Wunderground v.1.15,2013-09-07 15:25:00,
2013-09-07 11:26:00,74.1,63.3,30.10,SW,229,1.0,5.0,69,0.00,,,0.00,Wunderground v.1.15,2013-09-07 15:26:00,
2013-09-07 11:28:00,74.1,63.3,30.11,SW,229,2.0,5.0,69,0.00,,,0.00,Wunderground v.1.15,2013-09-07 15:28:00,
2013-09-07 11:29:00,74.1,63.3,30.11,SW,229,0.0,5.0,69,0.00,,,0.00,Wunderground v.1.15,2013-09-07 15:29:00,
2013-09-07 11:30:00,74.3,63.5,30.11,SW,229,1.0,2.0,69,0.00,,,0.00,Wunderground v.1.15,2013-09-07 15:30:00,
2013-09-07 11:31:00,74.5,63.7,30.10,SW,229,4.0,4.0,69,0.00,,,0.00,Wunderground v.1.15,2013-09-07 15:31:00,
2013-09-07 11:33:00,74.8,64.4,30.10,SW,229,2.0,4.0,70,0.00,,,0.00,Wunderground v.1.15,2013-09-07 15:33:00,
2013-09-07 11:34:00,74.9,63.6,30.10,SW,229,3.0,4.0,68,0.00,,,0.00,Wunderground v.1.15,2013-09-07 15:34:00,
2013-09-07 11:35:00,74.9,63.6,30.10,SW,229,1.0,4.0,68,0.00,,,0.00,Wunderground v.1.15,2013-09-07 15:35:00,
2013-09-07 11:36:00,75.2,64.7,30.10,SW,229,1.0,4.0,70,0.00,,,0.00,Wunderground v.1.15,2013-09-07 15:36:00,
2013-09-07 11:38:00,75.9,64.6,30.10,SW,229,1.0,4.0,68,0.00,,,0.00,Wunderground v.1.15,2013-09-07 15:38:00,
2013-09-07 11:39:00,76.4,65.5,30.10,SW,229,2.0,4.0,69,0.00,,,0.00,Wunderground v.1.15,2013-09-07 15:39:00,
2013-09-07 11:40:00,76.4,64.2,30.10,SW,229,1.0,3.0,66,0.00,,,0.00,Wunderground v.1.15,2013-09-07 15:40:00,
2013-09-07 11:41:00,76.3,64.5,30.10,SW,229,1.0,8.0,67,0.00,,,0.00,Wunderground v.1.15,2013-09-07 15:41:00,
2013-09-07 11:43:00,75.8,63.6,30.10,SW,229,2.0,8.0,66,0.00,,,0.00,Wunderground v.1.15,2013-09-07 15:43:00,
2013-09-07 11:44:00,75.6,63.4,30.10,SW,229,2.0,8.0,66,0.00,,,0.00,Wunderground v.1.15,2013-09-07 15:44:00,
2013-09-07 11:45:00,75.5,63.3,30.10,SW,229,5.0,8.0,66,0.00,,,0.00,Wunderground v.1.15,2013-09-07 15:45:00,
2013-09-07 11:46:00,75.3,63.2,30.10,SW,229,3.0,9.0,66,0.00,,,0.00,Wunderground v.1.15,2013-09-07 15:46:00,
2013-09-07 11:48:00,75.0,63.3,30.10,SW,229,4.0,9.0,67,0.00,,,0.00,Wunderground v.1.15,2013-09-07 15:48:00,
2013-09-07 11:49:00,75.0,63.3,30.10,SW,229,2.0,9.0,67,0.00,,,0.00,Wunderground v.1.15,2013-09-07 15:49:00,
2013-09-07 11:50:00,75.2,63.5,30.10,SW,229,0.0,3.0,67,0.00,,,0.00,Wunderground v.1.15,2013-09-07 15:50:00,
2013-09-07 11:51:00,75.3,64.0,30.10,SW,229,0.0,3.0,68,0.00,,,0.00,Wunderground v.1.15,2013-09-07 15:51:00,
2013-09-07 11:53:00,75.9,63.7,30.10,SW,229,2.0,5.0,66,0.00,,,0.00,Wunderground v.1.15,2013-09-07 15:53:00,
2013-09-07 11:54:00,75.9,64.2,30.10,SW,229,1.0,5.0,67,0.00,,,0.00,Wunderground v.1.15,2013-09-07 15:54:00,
2013-09-07 11:55:00,75.9,63.7,30.10,SW,229,0.0,5.0,66,0.00,,,0.00,Wunderground v.1.15,2013-09-07 15:55:00,
2013-09-07 11:56:00,75.9,64.2,30.10,SW,229,3.0,5.0,67,0.00,,,0.00,Wunderground v.1.15,2013-09-07 15:56:00,
2013-09-07 11:58:00,75.5,63.3,30.10,SW,229,2.0,9.0,66,0.00,,,0.00,Wunderground v.1.15,2013-09-07 15:58:00,
2013-09-07 11:59:00,75.4,63.7,30.10,SW,229,4.0,9.0,67,0.00,,,0.00,Wunderground v.1.15,2013-09-07 15:59:00,
2013-09-07 12:01:00,75.2,63.5,30.10,SW,229,3.0,5.0,67,0.00,,,0.00,Wunderground v.1.15,2013-09-07 16:01:00,
2013-09-07 12:03:00,74.7,63.4,30.10,SW,229,3.0,7.0,68,0.00,,,0.00,Wunderground v.1.15,2013-09-07 16:03:00,
2013-09-07 12:04:00,74.6,63.3,30.10,SW,229,3.0,7.0,68,0.00,,,0.00,Wunderground v.1.15,2013-09-07 16:04:00,
2013-09-07 12:06:00,74.5,63.7,30.09,SW,229,2.0,7.0,69,0.00,,,0.00,Wunderground v.1.15,2013-09-07 16:06:00,
2013-09-07 12:07:00,74.5,63.7,30.09,SW,229,1.0,7.0,69,0.00,,,0.00,Wunderground v.1.15,2013-09-07 16:07:00,
2013-09-07 12:08:00,74.6,63.8,30.09,SW,229,2.0,7.0,69,0.00,,,0.00,Wunderground v.1.15,2013-09-07 16:08:00,
2013-09-07 12:09:00,74.5,63.7,30.09,SW,229,2.0,7.0,69,0.00,,,0.00,Wunderground v.1.15,2013-09-07 16:09:00,
2013-09-07 12:11:00,74.4,63.6,30.09,SW,229,7.0,7.0,69,0.00,,,0.00,Wunderground v.1.15,2013-09-07 16:11:00,
2013-09-07 12:12:00,74.4,63.6,30.09,SW,229,4.0,7.0,69,0.00,,,0.00,Wunderground v.1.15,2013-09-07 16:12:00,
2013-09-07 12:14:00,74.2,63.4,30.09,SW,229,2.0,7.0,69,0.00,,,0.00,Wunderground v.1.15,2013-09-07 16:14:00,
2013-09-07 12:16:00,74.4,64.0,30.09,SW,229,2.0,7.0,70,0.00,,,0.00,Wunderground v.1.15,2013-09-07 16:16:00,
2013-09-07 12:17:00,74.4,64.0,30.09,SW,229,1.0,7.0,70,0.00,,,0.00,Wunderground v.1.15,2013-09-07 16:17:00,
2013-09-07 12:19:00,74.7,65.1,30.09,SW,229,1.0,7.0,72,0.00,,,0.00,Wunderground v.1.15,2013-09-07 16:19:00,
2013-09-07 12:21:00,74.9,63.6,30.09,SW,229,5.0,7.0,68,0.00,,,0.00,Wunderground v.1.15,2013-09-07 16:21:00,
2013-09-07 12:22:00,75.0,63.3,30.09,SW,229,6.0,7.0,67,0.00,,,0.00,Wunderground v.1.15,2013-09-07 16:22:00,
2013-09-07 12:23:00,74.7,63.4,30.09,SW,229,1.0,7.0,68,0.00,,,0.00,Wunderground v.1.15,2013-09-07 16:23:00,
2013-09-07 12:24:00,74.7,63.4,30.09,SW,229,1.0,7.0,68,0.00,,,0.00,Wunderground v.1.15,2013-09-07 16:24:00,
2013-09-07 12:26:00,74.8,63.9,30.09,SW,229,3.0,7.0,69,0.00,,,0.00,Wunderground v.1.15,2013-09-07 16:26:00,
2013-09-07 12:27:00,74.8,63.1,30.09,SW,229,2.0,7.0,67,0.00,,,0.00,Wunderground v.1.15,2013-09-07 16:27:00,
2013-09-07 12:28:00,74.8,63.9,30.09,SW,229,3.0,7.0,69,0.00,,,0.00,Wunderground v.1.15,2013-09-07 16:28:00,
2013-09-07 12:29:00,74.8,63.9,30.09,SW,229,4.0,7.0,69,0.00,,,0.00,Wunderground v.1.15,2013-09-07 16:29:00,
2013-09-07 12:31:00,74.8,63.1,30.08,SW,229,3.0,4.0,67,0.00,,,0.00,Wunderground v.1.15,2013-09-07 16:31:00,
2013-09-07 12:32:00,74.7,63.0,30.08,SW,229,1.0,4.0,67,0.00,,,0.00,Wunderground v.1.15,2013-09-07 16:32:00,
2013-09-07 12:33:00,74.6,62.9,30.08,SW,229,1.0,4.0,67,0.00,,,0.00,Wunderground v.1.15,2013-09-07 16:33:00,
2013-09-07 12:34:00,74.6,62.9,30.08,SW,229,1.0,4.0,67,0.00,,,0.00,Wunderground v.1.15,2013-09-07 16:34:00,
2013-09-07 12:36:00,74.5,63.2,30.08,SW,229,0.0,4.0,68,0.00,,,0.00,Wunderground v.1.15,2013-09-07 16:36:00,
2013-09-07 12:37:00,74.6,63.3,30.08,SW,229,1.0,4.0,68,0.00,,,0.00,Wunderground v.1.15,2013-09-07 16:37:00,
2013-09-07 12:38:00,74.7,63.9,30.08,SW,229,2.0,4.0,69,0.00,,,0.00,Wunderground v.1.15,2013-09-07 16:38:00,
2013-09-07 12:39:00,74.8,63.5,30.08,SW,229,3.0,5.0,68,0.00,,,0.00,Wunderground v.1.15,2013-09-07 16:39:00,
2013-09-07 12:41:00,75.3,64.0,30.08,SW,229,2.0,2.0,68,0.00,,,0.00,Wunderground v.1.15,2013-09-07 16:41:00,
2013-09-07 12:42:00,75.4,64.1,30.08,SW,229,3.0,4.0,68,0.00,,,0.00,Wunderground v.1.15,2013-09-07 16:42:00,
2013-09-07 12:44:00,75.4,64.1,30.08,SW,229,0.0,4.0,68,0.00,,,0.00,Wunderground v.1.15,2013-09-07 16:44:00,
2013-09-07 12:46:00,76.0,64.7,30.08,SW,229,0.0,4.0,68,0.00,,,0.00,Wunderground v.1.15,2013-09-07 16:46:00,
2013-09-07 12:47:00,76.2,64.9,30.08,SW,229,3.0,4.0,68,0.00,,,0.00,Wunderground v.1.15,2013-09-07 16:47:00,
2013-09-07 12:49:00,76.4,64.2,30.08,SW,229,1.0,4.0,66,0.00,,,0.00,Wunderground v.1.15,2013-09-07 16:49:00,
2013-09-07 12:51:00,77.1,64.9,30.08,SW,229,2.0,4.0,66,0.00,,,0.00,Wunderground v.1.15,2013-09-07 16:51:00,
2013-09-07 12:52:00,77.4,65.6,30.08,SW,229,5.0,5.0,67,0.00,,,0.00,Wunderground v.1.15,2013-09-07 16:52:00,
2013-09-07 12:54:00,77.8,64.6,30.08,SW,229,2.0,5.0,64,0.00,,,0.00,Wunderground v.1.15,2013-09-07 16:54:00,
2013-09-07 12:55:00,78.0,64.4,30.08,SW,228,5.0,5.0,63,0.00,,,0.00,Wunderground v.1.15,2013-09-07 16:55:00,
2013-09-07 12:56:00,78.3,64.7,30.08,SW,229,1.0,6.0,63,0.00,,,0.00,Wunderground v.1.15,2013-09-07 16:56:00,
2013-09-07 12:57:00,78.3,64.2,30.08,SW,229,2.0,6.0,62,0.00,,,0.00,Wunderground v.1.15,2013-09-07 16:57:00,
2013-09-07 12:59:00,78.2,64.6,30.08,SW,229,5.0,6.0,63,0.00,,,0.00,Wunderground v.1.15,2013-09-07 16:59:00,
2013-09-07 13:00:00,78.1,63.6,30.08,SW,229,2.0,3.0,61,0.00,,,0.00,Wunderground v.1.15,2013-09-07 17:00:00,
2013-09-07 13:02:00,77.7,63.6,30.08,SW,229,3.0,9.0,62,0.00,,,0.00,Wunderground v.1.15,2013-09-07 17:02:00,
2013-09-07 13:03:00,77.6,63.1,30.08,SW,229,4.0,9.0,61,0.00,,,0.00,Wunderground v.1.15,2013-09-07 17:03:00,
2013-09-07 13:04:00,77.3,63.7,30.08,SW,229,1.0,9.0,63,0.00,,,0.00,Wunderground v.1.15,2013-09-07 17:04:00,
2013-09-07 13:05:00,77.2,63.6,30.07,SW,228,0.0,9.0,63,0.00,,,0.00,Wunderground v.1.15,2013-09-07 17:05:00,
2013-09-07 13:07:00,77.1,63.5,30.07,SW,229,1.0,9.0,63,0.00,,,0.00,Wunderground v.1.15,2013-09-07 17:07:00,
2013-09-07 13:08:00,77.1,64.0,30.07,SW,228,2.0,9.0,64,0.00,,,0.00,Wunderground v.1.15,2013-09-07 17:08:00,
2013-09-07 13:09:00,77.1,64.0,30.07,SW,228,2.0,9.0,64,0.00,,,0.00,Wunderground v.1.15,2013-09-07 17:09:00,
2013-09-07 13:10:00,77.1,63.5,30.07,SW,229,1.0,2.0,63,0.00,,,0.00,Wunderground v.1.15,2013-09-07 17:10:00,
2013-09-07 13:12:00,77.3,64.2,30.07,SW,229,2.0,4.0,64,0.00,,,0.00,Wunderground v.1.15,2013-09-07 17:12:00,
2013-09-07 13:13:00,77.3,64.2,30.07,SW,228,3.0,4.0,64,0.00,,,0.00,Wunderground v.1.15,2013-09-07 17:13:00,
2013-09-07 13:14:00,77.4,63.8,30.07,SW,229,2.0,4.0,63,0.00,,,0.00,Wunderground v.1.15,2013-09-07 17:14:00,
2013-09-07 13:15:00,77.4,63.8,30.07,SW,228,4.0,5.0,63,0.00,,,0.00,Wunderground v.1.15,2013-09-07 17:15:00,
2013-09-07 13:16:00,77.4,63.8,30.07,SW,229,2.0,5.0,63,0.00,,,0.00,Wunderground v.1.15,2013-09-07 17:16:00,
2013-09-07 13:17:00,77.2,63.6,30.07,SW,229,2.0,5.0,63,0.00,,,0.00,Wunderground v.1.15,2013-09-07 17:17:00,
2013-09-07 13:18:00,77.2,64.1,30.07,SW,228,2.0,5.0,64,0.00,,,0.00,Wunderground v.1.15,2013-09-07 17:18:00,
2013-09-07 13:19:00,77.3,64.2,30.07,SW,228,2.0,5.0,64,0.00,,,0.00,Wunderground v.1.15,2013-09-07 17:19:00,
2013-09-07 13:20:00,77.4,64.3,30.07,SW,229,0.0,2.0,64,0.00,,,0.00,Wunderground v.1.15,2013-09-07 17:20:00,
2013-09-07 13:21:00,77.6,64.0,30.07,SW,229,3.0,6.0,63,0.00,,,0.00,Wunderground v.1.15,2013-09-07 17:21:00,
2013-09-07 13:22:00,77.6,64.0,30.07,SW,229,4.0,6.0,63,0.00,,,0.00,Wunderground v.1.15,2013-09-07 17:22:00,
2013-09-07 13:23:00,77.6,63.5,30.07,SW,228,2.0,6.0,62,0.00,,,0.00,Wunderground v.1.15,2013-09-07 17:23:00,
2013-09-07 13:24:00,77.5,63.9,30.07,SW,229,1.0,6.0,63,0.00,,,0.00,Wunderground v.1.15,2013-09-07 17:24:00,
2013-09-07 13:25:00,77.4,63.4,30.07,SW,229,3.0,6.0,62,0.00,,,0.00,Wunderground v.1.15,2013-09-07 17:25:00,
2013-09-07 13:26:00,77.4,63.8,30.07,SW,229,1.0,6.0,63,0.00,,,0.00,Wunderground v.1.15,2013-09-07 17:26:00,
2013-09-07 13:27:00,77.5,63.9,30.07,SW,228,3.0,6.0,63,0.00,,,0.00,Wunderground v.1.15,2013-09-07 17:27:00,
2013-09-07 13:28:00,77.5,63.5,30.07,SW,229,4.0,6.0,62,0.00,,,0.00,Wunderground v.1.15,2013-09-07 17:28:00,
2013-09-07 13:29:00,77.4,63.4,30.07,SW,229,8.0,8.0,62,0.00,,,0.00,Wunderground v.1.15,2013-09-07 17:29:00,
2013-09-07 13:30:00,77.4,63.4,30.07,SW,228,5.0,5.0,62,0.00,,,0.00,Wunderground v.1.15,2013-09-07 17:30:00,
2013-09-07 13:32:00,77.4,63.8,30.07,SW,228,1.0,6.0,63,0.00,,,0.00,Wunderground v.1.15,2013-09-07 17:32:00,
2013-09-07 13:33:00,77.6,63.5,30.07,SW,228,1.0,7.0,62,0.00,,,0.00,Wunderground v.1.15,2013-09-07 17:33:00,
2013-09-07 13:34:00,77.6,63.5,30.06,SW,228,4.0,7.0,62,0.00,,,0.00,Wunderground v.1.15,2013-09-07 17:34:00,
2013-09-07 13:35:00,77.7,63.6,30.06,SW,228,4.0,7.0,62,0.00,,,0.00,Wunderground v.1.15,2013-09-07 17:35:00,
2013-09-07 13:37:00,77.9,63.4,30.06,SW,228,3.0,7.0,61,0.00,,,0.00,Wunderground v.1.15,2013-09-07 17:37:00,
2013-09-07 13:38:00,78.1,63.6,30.07,SW,228,2.0,7.0,61,0.00,,,0.00,Wunderground v.1.15,2013-09-07 17:38:00,
2013-09-07 13:39:00,78.2,63.6,30.07,SW,228,6.0,7.0,61,0.00,,,0.00,Wunderground v.1.15,2013-09-07 17:39:00,
2013-09-07 13:40:00,78.2,63.6,30.06,SW,228,5.0,5.0,61,0.00,,,0.00,Wunderground v.1.15,2013-09-07 17:40:00,
2013-09-07 13:41:00,78.1,63.1,30.06,SW,228,2.0,6.0,60,0.00,,,0.00,Wunderground v.1.15,2013-09-07 17:41:00,
2013-09-07 13:42:00,78.0,63.9,30.06,SW,228,3.0,6.0,62,0.00,,,0.00,Wunderground v.1.15,2013-09-07 17:42:00,
2013-09-07 13:43:00,78.1,63.1,30.06,SW,228,1.0,6.0,60,0.00,,,0.00,Wunderground v.1.15,2013-09-07 17:43:00,
2013-09-07 13:44:00,78.0,63.5,30.06,SW,229,3.0,6.0,61,0.00,,,0.00,Wunderground v.1.15,2013-09-07 17:44:00,
2013-09-07 13:45:00,78.0,63.5,30.06,SW,228,2.0,6.0,61,0.00,,,0.00,Wunderground v.1.15,2013-09-07 17:45:00,
2013-09-07 13:46:00,78.1,63.6,30.06,SW,228,6.0,6.0,61,0.00,,,0.00,Wunderground v.1.15,2013-09-07 17:46:00,
2013-09-07 13:47:00,78.2,63.6,30.06,SW,228,4.0,6.0,61,0.00,,,0.00,Wunderground v.1.15,2013-09-07 17:47:00,
2013-09-07 13:48:00,78.4,63.8,30.06,SW,228,0.0,6.0,61,0.00,,,0.00,Wunderground v.1.15,2013-09-07 17:48:00,
2013-09-07 13:49:00,78.5,63.9,30.06,SW,228,3.0,6.0,61,0.00,,,0.00,Wunderground v.1.15,2013-09-07 17:49:00,
2013-09-07 13:50:00,78.6,63.6,30.06,SW,228,3.0,3.0,60,0.00,,,0.00,Wunderground v.1.15,2013-09-07 17:50:00,
2013-09-07 13:51:00,78.9,64.8,30.06,SW,228,4.0,5.0,62,0.00,,,0.00,Wunderground v.1.15,2013-09-07 17:51:00,
2013-09-07 13:52:00,79.5,64.9,30.06,SW,228,4.0,5.0,61,0.00,,,0.00,Wunderground v.1.15,2013-09-07 17:52:00,
2013-09-07 13:53:00,79.7,64.1,30.06,SW,228,3.0,6.0,59,0.00,,,0.00,Wunderground v.1.15,2013-09-07 17:53:00,
2013-09-07 13:54:00,79.5,63.9,30.06,SW,228,2.0,6.0,59,0.00,,,0.00,Wunderground v.1.15,2013-09-07 17:54:00,
2013-09-07 13:55:00,79.5,63.9,30.06,SW,228,2.0,6.0,59,0.00,,,0.00,Wunderground v.1.15,2013-09-07 17:55:00,
2013-09-07 13:56:00,79.5,63.9,30.06,SW,228,5.0,6.0,59,0.00,,,0.00,Wunderground v.1.15,2013-09-07 17:56:00,
2013-09-07 13:58:00,79.3,63.7,30.06,SW,228,0.0,6.0,59,0.00,,,0.00,Wunderground v.1.15,2013-09-07 17:58:00,
2013-09-07 13:59:00,79.2,63.6,30.05,SW,228,3.0,7.0,59,0.00,,,0.00,Wunderground v.1.15,2013-09-07 17:59:00,
2013-09-07 14:00:00,79.1,63.5,30.05,SW,229,2.0,3.0,59,0.00,,,0.00,Wunderground v.1.15,2013-09-07 18:00:00,
2013-09-07 14:01:00,78.8,63.3,30.05,SW,228,3.0,4.0,59,0.00,,,0.00,Wunderground v.1.15,2013-09-07 18:01:00,
2013-09-07 14:03:00,78.6,63.1,30.05,SW,228,2.0,4.0,59,0.00,,,0.00,Wunderground v.1.15,2013-09-07 18:03:00,
2013-09-07 14:04:00,78.8,63.7,30.05,SW,228,1.0,4.0,60,0.00,,,0.00,Wunderground v.1.15,2013-09-07 18:04:00,
2013-09-07 14:05:00,78.8,62.8,30.05,SW,228,1.0,4.0,58,0.00,,,0.00,Wunderground v.1.15,2013-09-07 18:05:00,
2013-09-07 14:06:00,78.9,63.4,30.05,SW,228,1.0,4.0,59,0.00,,,0.00,Wunderground v.1.15,2013-09-07 18:06:00,
2013-09-07 14:08:00,78.8,63.7,30.05,SW,228,2.0,4.0,60,0.00,,,0.00,Wunderground v.1.15,2013-09-07 18:08:00,
2013-09-07 14:09:00,78.9,63.8,30.05,SW,228,1.0,4.0,60,0.00,,,0.00,Wunderground v.1.15,2013-09-07 18:09:00,
2013-09-07 14:10:00,79.0,63.4,30.05,SW,228,2.0,2.0,59,0.00,,,0.00,Wunderground v.1.15,2013-09-07 18:10:00,
2013-09-07 14:12:00,79.2,64.1,30.05,SW,228,1.0,4.0,60,0.00,,,0.00,Wunderground v.1.15,2013-09-07 18:12:00,
2013-09-07 14:13:00,79.4,64.8,30.05,SW,228,1.0,4.0,61,0.00,,,0.00,Wunderground v.1.15,2013-09-07 18:13:00,
2013-09-07 14:14:00,79.7,64.1,30.04,SW,229,2.0,5.0,59,0.00,,,0.00,Wunderground v.1.15,2013-09-07 18:14:00,
2013-09-07 14:15:00,79.8,63.7,30.04,SW,228,5.0,6.0,58,0.00,,,0.00,Wunderground v.1.15,2013-09-07 18:15:00,
2013-09-07 14:17:00,80.1,64.0,30.04,SW,228,2.0,6.0,58,0.00,,,0.00,Wunderground v.1.15,2013-09-07 18:17:00,
2013-09-07 14:18:00,80.1,64.5,30.04,SW,228,5.0,6.0,59,0.00,,,0.00,Wunderground v.1.15,2013-09-07 18:18:00,
2013-09-07 14:19:00,80.1,63.5,30.04,SW,228,2.0,6.0,57,0.00,,,0.00,Wunderground v.1.15,2013-09-07 18:19:00,
2013-09-07 14:20:00,80.0,63.9,30.04,SW,228,2.0,2.0,58,0.00,,,0.00,Wunderground v.1.15,2013-09-07 18:20:00,
2013-09-07 14:22:00,80.0,63.4,30.04,SW,228,4.0,10.0,57,0.00,,,0.00,Wunderground v.1.15,2013-09-07 18:22:00,
2013-09-07 14:23:00,80.1,63.5,30.04,SW,227,5.0,10.0,57,0.00,,,0.00,Wunderground v.1.15,2013-09-07 18:23:00,
2013-09-07 14:24:00,80.0,62.9,30.04,SW,228,7.0,10.0,56,0.00,,,0.00,Wunderground v.1.15,2013-09-07 18:24:00,
2013-09-07 14:25:00,79.8,62.7,30.04,SW,228,3.0,10.0,56,0.00,,,0.00,Wunderground v.1.15,2013-09-07 18:25:00,
2013-09-07 14:27:00,79.3,63.2,30.04,SW,228,2.0,10.0,58,0.00,,,0.00,Wunderground v.1.15,2013-09-07 18:27:00,
2013-09-07 14:29:00,79.3,63.7,30.04,SW,229,4.0,10.0,59,0.00,,,0.00,Wunderground v.1.15,2013-09-07 18:29:00,
2013-09-07 14:30:00,79.4,63.8,30.04,SW,227,2.0,3.0,59,0.00,,,0.00,Wunderground v.1.15,2013-09-07 18:30:00,
2013-09-07 14:32:00,79.4,62.3,30.04,SW,228,3.0,9.0,56,0.00,,,0.00,Wunderground v.1.15,2013-09-07 18:32:00,
2013-09-07 14:34:00,79.4,62.8,30.03,SW,228,0.0,9.0,57,0.00,,,0.00,Wunderground v.1.15,2013-09-07 18:34:00,
2013-09-07 14:35:00,79.6,63.0,30.03,SW,228,5.0,9.0,57,0.00,,,0.00,Wunderground v.1.15,2013-09-07 18:35:00,
2013-09-07 14:38:00,80.0,63.9,30.03,SW,228,2.0,9.0,58,0.00,,,0.00,Wunderground v.1.15,2013-09-07 18:38:00,
2013-09-07 14:39:00,80.2,63.6,30.03,SW,228,4.0,9.0,57,0.00,,,0.00,Wunderground v.1.15,2013-09-07 18:39:00,
2013-09-07 14:40:00,80.4,63.3,30.03,SW,228,3.0,4.0,56,0.00,,,0.00,Wunderground v.1.15,2013-09-07 18:40:00,
2013-09-07 14:44:00,81.0,63.8,30.03,SW,228,5.0,9.0,56,0.00,,,0.00,Wunderground v.1.15,2013-09-07 18:44:00,
2013-09-07 14:45:00,80.9,62.7,30.03,SW,228,3.0,9.0,54,0.00,,,0.00,Wunderground v.1.15,2013-09-07 18:45:00,
2013-09-07 14:49:00,80.3,63.2,30.03,SW,228,2.0,9.0,56,0.00,,,0.00,Wunderground v.1.15,2013-09-07 18:49:00,
2013-09-07 14:50:00,80.4,63.8,30.03,SW,228,4.0,4.0,57,0.00,,,0.00,Wunderground v.1.15,2013-09-07 18:50:00,
2013-09-07 14:54:00,81.1,63.9,30.03,SW,228,1.0,8.0,56,0.00,,,0.00,Wunderground v.1.15,2013-09-07 18:54:00,
2013-09-07 14:55:00,81.3,63.6,30.03,SW,228,2.0,8.0,55,0.00,,,0.00,Wunderground v.1.15,2013-09-07 18:55:00,
2013-09-07 14:59:00,81.3,63.6,30.02,SW,228,5.0,8.0,55,0.00,,,0.00,Wunderground v.1.15,2013-09-07 18:59:00,
2013-09-07 15:00:00,81.3,63.6,30.02,SW,228,3.0,3.0,55,0.00,,,0.00,Wunderground v.1.15,2013-09-07 19:00:00,
2013-09-07 15:04:00,81.1,63.9,30.02,SW,228,2.0,6.0,56,0.00,,,0.00,Wunderground v.1.15,2013-09-07 19:04:00,
2013-09-07 15:05:00,81.2,64.0,30.02,SW,228,3.0,6.0,56,0.00,,,0.00,Wunderground v.1.15,2013-09-07 19:05:00,
2013-09-07 15:09:00,81.1,62.3,30.02,SW,227,3.0,6.0,53,0.00,,,0.00,Wunderground v.1.15,2013-09-07 19:09:00,
2013-09-07 15:10:00,81.1,62.9,30.02,SW,229,4.0,4.0,54,0.00,,,0.00,Wunderground v.1.15,2013-09-07 19:10:00,
2013-09-07 15:14:00,80.6,62.9,30.02,SW,228,4.0,8.0,55,0.00,,,0.00,Wunderground v.1.15,2013-09-07 19:14:00,
2013-09-07 15:15:00,80.5,62.8,30.02,SW,228,4.0,8.0,55,0.00,,,0.00,Wunderground v.1.15,2013-09-07 19:15:00,
2013-09-07 15:19:00,80.0,62.9,30.02,SW,229,2.0,8.0,56,0.00,,,0.00,Wunderground v.1.15,2013-09-07 19:19:00,
2013-09-07 15:20:00,80.1,63.0,30.02,SW,230,3.0,3.0,56,0.00,,,0.00,Wunderground v.1.15,2013-09-07 19:20:00,
2013-09-07 15:25:00,80.8,63.6,30.01,SW,228,4.0,8.0,56,0.00,,,0.00,Wunderground v.1.15,2013-09-07 19:25:00,
2013-09-07 15:26:00,80.8,63.1,30.01,SW,228,4.0,8.0,55,0.00,,,0.00,Wunderground v.1.15,2013-09-07 19:26:00,
2013-09-07 15:30:00,81.4,63.2,30.01,SW,228,2.0,3.0,54,0.00,,,0.00,Wunderground v.1.15,2013-09-07 19:30:00,
2013-09-07 15:31:00,81.6,63.3,30.01,SW,228,3.0,3.0,54,0.00,,,0.00,Wunderground v.1.15,2013-09-07 19:31:00,
2013-09-07 15:32:00,81.7,62.9,30.01,SW,228,2.0,7.0,53,0.00,,,0.00,Wunderground v.1.15,2013-09-07 19:32:00,
2013-09-07 15:34:00,81.8,64.6,30.01,SW,228,1.0,7.0,56,0.00,,,0.00,Wunderground v.1.15,2013-09-07 19:34:00,
2013-09-07 15:35:00,81.8,64.1,30.01,SW,228,2.0,7.0,55,0.00,,,0.00,Wunderground v.1.15,2013-09-07 19:35:00,
2013-09-07 15:36:00,81.8,64.1,30.01,SW,228,2.0,7.0,55,0.00,,,0.00,Wunderground v.1.15,2013-09-07 19:36:00,
2013-09-07 15:37:00,81.9,63.1,30.01,SW,228,5.0,7.0,53,0.00,,,0.00,Wunderground v.1.15,2013-09-07 19:37:00,
2013-09-07 15:40:00,81.6,62.8,30.01,SW,228,4.0,4.0,53,0.00,,,0.00,Wunderground v.1.15,2013-09-07 19:40:00,
2013-09-07 15:41:00,81.5,62.7,30.01,SW,228,1.0,4.0,53,0.00,,,0.00,Wunderground v.1.15,2013-09-07 19:41:00,
2013-09-07 15:42:00,81.5,62.7,30.01,SW,228,4.0,8.0,53,0.00,,,0.00,Wunderground v.1.15,2013-09-07 19:42:00,
2013-09-07 15:45:00,81.5,63.3,30.01,SW,228,2.0,8.0,54,0.00,,,0.00,Wunderground v.1.15,2013-09-07 19:45:00,
2013-09-07 15:46:00,81.6,62.8,30.01,SW,228,4.0,8.0,53,0.00,,,0.00,Wunderground v.1.15,2013-09-07 19:46:00,
2013-09-07 15:47:00,81.5,62.7,30.01,SW,228,6.0,8.0,53,0.00,,,0.00,Wunderground v.1.15,2013-09-07 19:47:00,
2013-09-07 15:50:00,81.8,64.1,30.01,SW,228,2.0,3.0,55,0.00,,,0.00,Wunderground v.1.15,2013-09-07 19:50:00,
2013-09-07 15:51:00,82.0,63.2,30.01,SW,228,1.0,3.0,53,0.00,,,0.00,Wunderground v.1.15,2013-09-07 19:51:00,
2013-09-07 15:52:00,82.0,63.2,30.01,SW,228,1.0,4.0,53,0.00,,,0.00,Wunderground v.1.15,2013-09-07 19:52:00,
2013-09-07 15:55:00,82.1,63.3,30.01,SW,228,3.0,4.0,53,0.00,,,0.00,Wunderground v.1.15,2013-09-07 19:55:00,
2013-09-07 15:56:00,82.1,62.7,30.01,SW,228,4.0,8.0,52,0.00,,,0.00,Wunderground v.1.15,2013-09-07 19:56:00,
2013-09-07 15:57:00,81.9,62.5,30.01,SW,228,2.0,8.0,52,0.00,,,0.00,Wunderground v.1.15,2013-09-07 19:57:00,
2013-09-07 16:00:00,81.8,63.5,30.00,SW,228,5.0,5.0,54,0.00,,,0.00,Wunderground v.1.15,2013-09-07 20:00:00,
2013-09-07 16:01:00,81.9,63.6,30.00,SW,228,2.0,7.0,54,0.00,,,0.00,Wunderground v.1.15,2013-09-07 20:01:00,
2013-09-07 16:02:00,81.9,63.6,30.00,SW,228,3.0,7.0,54,0.00,,,0.00,Wunderground v.1.15,2013-09-07 20:02:00,
2013-09-07 16:05:00,82.3,64.0,30.00,SW,228,1.0,7.0,54,0.00,,,0.00,Wunderground v.1.15,2013-09-07 20:05:00,
2013-09-07 16:06:00,82.4,64.1,30.00,SW,228,2.0,7.0,54,0.00,,,0.00,Wunderground v.1.15,2013-09-07 20:06:00,
2013-09-07 16:07:00,82.6,63.7,30.00,SW,228,1.0,7.0,53,0.00,,,0.00,Wunderground v.1.15,2013-09-07 20:07:00,
2013-09-07 16:10:00,82.9,62.9,30.00,SW,229,4.0,6.0,51,0.00,,,0.00,Wunderground v.1.15,2013-09-07 20:10:00,
2013-09-07 16:11:00,82.7,63.3,30.00,SW,228,2.0,6.0,52,0.00,,,0.00,Wunderground v.1.15,2013-09-07 20:11:00,
2013-09-07 16:12:00,82.6,63.7,30.00,SW,228,2.0,6.0,53,0.00,,,0.00,Wunderground v.1.15,2013-09-07 20:12:00,
2013-09-07 16:13:00,82.5,63.6,30.00,SW,228,4.0,6.0,53,0.00,,,0.00,Wunderground v.1.15,2013-09-07 20:13:00,
2013-09-07 16:15:00,82.4,64.1,30.00,SW,228,2.0,6.0,54,0.00,,,0.00,Wunderground v.1.15,2013-09-07 20:15:00,
2013-09-07 16:16:00,82.3,62.9,30.00,SW,228,3.0,6.0,52,0.00,,,0.00,Wunderground v.1.15,2013-09-07 20:16:00,
2013-09-07 16:17:00,82.2,63.4,30.00,SW,228,2.0,6.0,53,0.00,,,0.00,Wunderground v.1.15,2013-09-07 20:17:00,
2013-09-07 16:18:00,82.2,63.4,30.00,SW,228,1.0,6.0,53,0.00,,,0.00,Wunderground v.1.15,2013-09-07 20:18:00,
2013-09-07 16:20:00,82.1,63.8,29.99,SW,228,4.0,4.0,54,0.00,,,0.00,Wunderground v.1.15,2013-09-07 20:20:00,
2013-09-07 16:21:00,82.1,63.3,29.99,SW,228,1.0,4.0,53,0.00,,,0.00,Wunderground v.1.15,2013-09-07 20:21:00,
2013-09-07 16:23:00,82.2,63.4,29.99,SW,228,1.0,4.0,53,0.00,,,0.00,Wunderground v.1.15,2013-09-07 20:23:00,
2013-09-07 16:24:00,82.2,63.4,29.99,SW,228,2.0,4.0,53,0.00,,,0.00,Wunderground v.1.15,2013-09-07 20:24:00,
2013-09-07 16:25:00,82.2,63.4,29.99,SW,229,1.0,4.0,53,0.00,,,0.00,Wunderground v.1.15,2013-09-07 20:25:00,
2013-09-07 16:26:00,82.3,63.5,29.99,SW,228,1.0,4.0,53,0.00,,,0.00,Wunderground v.1.15,2013-09-07 20:26:00,
2013-09-07 16:28:00,82.4,63.5,29.99,SW,228,4.0,7.0,53,0.00,,,0.00,Wunderground v.1.15,2013-09-07 20:28:00,
2013-09-07 16:29:00,82.4,63.5,29.99,SW,228,2.0,7.0,53,0.00,,,0.00,Wunderground v.1.15,2013-09-07 20:29:00,
2013-09-07 16:30:00,82.3,63.5,29.99,SW,228,6.0,6.0,53,0.00,,,0.00,Wunderground v.1.15,2013-09-07 20:30:00,
2013-09-07 16:31:00,82.2,63.4,29.99,SW,229,2.0,6.0,53,0.00,,,0.00,Wunderground v.1.15,2013-09-07 20:31:00,
2013-09-07 16:33:00,82.0,62.1,29.99,SW,229,4.0,6.0,51,0.00,,,0.00,Wunderground v.1.15,2013-09-07 20:33:00,
2013-09-07 16:34:00,81.9,62.5,29.99,SW,229,4.0,6.0,52,0.00,,,0.00,Wunderground v.1.15,2013-09-07 20:34:00,
2013-09-07 16:35:00,81.7,62.4,29.99,SW,229,0.0,6.0,52,0.00,,,0.00,Wunderground v.1.15,2013-09-07 20:35:00,
2013-09-07 16:36:00,81.8,63.0,29.99,SW,228,1.0,6.0,53,0.00,,,0.00,Wunderground v.1.15,2013-09-07 20:36:00,
2013-09-07 16:38:00,82.1,63.3,29.99,SW,228,3.0,6.0,53,0.00,,,0.00,Wunderground v.1.15,2013-09-07 20:38:00,
2013-09-07 16:39:00,82.1,62.7,29.99,SW,228,2.0,6.0,52,0.00,,,0.00,Wunderground v.1.15,2013-09-07 20:39:00,
2013-09-07 16:40:00,82.1,63.3,29.99,SW,228,2.0,2.0,53,0.00,,,0.00,Wunderground v.1.15,2013-09-07 20:40:00,
2013-09-07 16:41:00,82.1,63.3,29.99,SW,228,3.0,3.0,53,0.00,,,0.00,Wunderground v.1.15,2013-09-07 20:41:00,
2013-09-07 16:42:00,82.1,63.3,29.99,SW,229,4.0,5.0,53,0.00,,,0.00,Wunderground v.1.15,2013-09-07 20:42:00,
2013-09-07 16:43:00,81.8,61.9,29.99,SW,228,3.0,8.0,51,0.00,,,0.00,Wunderground v.1.15,2013-09-07 20:43:00,
2013-09-07 16:44:00,81.7,62.4,29.99,SW,228,4.0,8.0,52,0.00,,,0.00,Wunderground v.1.15,2013-09-07 20:44:00,
2013-09-07 16:45:00,81.6,62.8,29.99,SW,228,1.0,8.0,53,0.00,,,0.00,Wunderground v.1.15,2013-09-07 20:45:00,
2013-09-07 16:46:00,81.6,63.3,29.99,SW,228,2.0,8.0,54,0.00,,,0.00,Wunderground v.1.15,2013-09-07 20:46:00,
2013-09-07 16:47:00,81.6,63.3,29.99,SW,228,2.0,8.0,54,0.00,,,0.00,Wunderground v.1.15,2013-09-07 20:47:00,
2013-09-07 16:49:00,81.7,62.9,29.99,SW,228,1.0,8.0,53,0.00,,,0.00,Wunderground v.1.15,2013-09-07 20:49:00,
2013-09-07 16:50:00,81.9,63.6,29.99,SW,228,2.0,3.0,54,0.00,,,0.00,Wunderground v.1.15,2013-09-07 20:50:00,
2013-09-07 16:51:00,82.1,63.3,29.99,SW,228,3.0,3.0,53,0.00,,,0.00,Wunderground v.1.15,2013-09-07 20:51:00,
2013-09-07 16:52:00,82.2,63.4,29.99,SW,228,0.0,3.0,53,0.00,,,0.00,Wunderground v.1.15,2013-09-07 20:52:00,
2013-09-07 16:54:00,82.5,63.6,29.99,SW,228,0.0,3.0,53,0.00,,,0.00,Wunderground v.1.15,2013-09-07 20:54:00,
2013-09-07 16:55:00,82.8,63.9,29.99,SW,228,2.0,3.0,53,0.00,,,0.00,Wunderground v.1.15,2013-09-07 20:55:00,
2013-09-07 16:56:00,83.0,64.1,29.99,SW,228,2.0,3.0,53,0.00,,,0.00,Wunderground v.1.15,2013-09-07 20:56:00,
2013-09-07 16:57:00,83.1,64.7,29.99,SW,228,2.0,3.0,54,0.00,,,0.00,Wunderground v.1.15,2013-09-07 20:57:00,
2013-09-07 16:59:00,83.3,63.8,29.99,SW,228,0.0,3.0,52,0.00,,,0.00,Wunderground v.1.15,2013-09-07 20:59:00,
2013-09-07 17:00:00,83.3,63.8,29.99,SW,228,0.0,1.0,52,0.00,,,0.00,Wunderground v.1.15,2013-09-07 21:00:00,
2013-09-07 17:01:00,83.3,63.8,29.99,SW,228,3.0,3.0,52,0.00,,,0.00,Wunderground v.1.15,2013-09-07 21:01:00,
2013-09-07 17:02:00,83.4,63.9,29.99,SW,228,0.0,3.0,52,0.00,,,0.00,Wunderground v.1.15,2013-09-07 21:02:00,
2013-09-07 17:05:00,83.6,63.6,29.99,SW,228,2.0,4.0,51,0.00,,,0.00,Wunderground v.1.15,2013-09-07 21:05:00,
2013-09-07 17:06:00,83.5,62.9,29.99,SW,229,3.0,4.0,50,0.00,,,0.00,Wunderground v.1.15,2013-09-07 21:06:00,
2013-09-07 17:07:00,83.3,63.3,29.99,SW,229,1.0,4.0,51,0.00,,,0.00,Wunderground v.1.15,2013-09-07 21:07:00,
2013-09-07 17:10:00,83.1,63.1,29.98,SW,228,3.0,7.0,51,0.00,,,0.00,Wunderground v.1.15,2013-09-07 21:10:00,
2013-09-07 17:11:00,82.8,62.8,29.98,SW,228,3.0,7.0,51,0.00,,,0.00,Wunderground v.1.15,2013-09-07 21:11:00,
2013-09-07 17:12:00,82.5,62.5,29.98,SW,228,3.0,7.0,51,0.00,,,0.00,Wunderground v.1.15,2013-09-07 21:12:00,
2013-09-07 17:15:00,82.1,62.7,29.98,SW,228,2.0,7.0,52,0.00,,,0.00,Wunderground v.1.15,2013-09-07 21:15:00,
2013-09-07 17:16:00,82.2,62.8,29.98,SW,228,3.0,7.0,52,0.00,,,0.00,Wunderground v.1.15,2013-09-07 21:16:00,
2013-09-07 17:17:00,82.0,62.6,29.98,SW,228,3.0,7.0,52,0.00,,,0.00,Wunderground v.1.15,2013-09-07 21:17:00,
2013-09-07 17:20:00,82.0,63.2,29.98,SW,229,3.0,3.0,53,0.00,,,0.00,Wunderground v.1.15,2013-09-07 21:20:00,
2013-09-07 17:21:00,82.0,63.2,29.98,SW,230,2.0,3.0,53,0.00,,,0.00,Wunderground v.1.15,2013-09-07 21:21:00,
2013-09-07 17:22:00,82.0,63.2,29.98,SW,229,2.0,3.0,53,0.00,,,0.00,Wunderground v.1.15,2013-09-07 21:22:00,
2013-09-07 17:25:00,81.7,62.9,29.98,SW,229,3.0,8.0,53,0.00,,,0.00,Wunderground v.1.15,2013-09-07 21:25:00,
2013-09-07 17:26:00,81.7,62.9,29.98,SW,229,1.0,8.0,53,0.00,,,0.00,Wunderground v.1.15,2013-09-07 21:26:00,
2013-09-07 17:27:00,81.6,63.3,29.98,SW,229,1.0,8.0,54,0.00,,,0.00,Wunderground v.1.15,2013-09-07 21:27:00,
2013-09-07 17:30:00,81.9,62.5,29.98,SW,228,4.0,4.0,52,0.00,,,0.00,Wunderground v.1.15,2013-09-07 21:30:00,
2013-09-07 17:31:00,81.9,62.5,29.98,SW,228,2.0,4.0,52,0.00,,,0.00,Wunderground v.1.15,2013-09-07 21:31:00,
2013-09-07 17:32:00,81.9,63.1,29.98,SW,229,2.0,4.0,53,0.00,,,0.00,Wunderground v.1.15,2013-09-07 21:32:00,
2013-09-07 17:36:00,81.8,63.5,29.98,SW,229,1.0,5.0,54,0.00,,,0.00,Wunderground v.1.15,2013-09-07 21:36:00,
2013-09-07 17:37:00,81.8,63.5,29.98,SW,229,2.0,5.0,54,0.00,,,0.00,Wunderground v.1.15,2013-09-07 21:37:00,
2013-09-07 17:41:00,81.8,63.5,29.97,SW,229,1.0,2.0,54,0.00,,,0.00,Wunderground v.1.15,2013-09-07 21:41:00,
2013-09-07 17:42:00,81.9,63.6,29.98,SW,229,0.0,2.0,54,0.00,,,0.00,Wunderground v.1.15,2013-09-07 21:42:00,
2013-09-07 17:46:00,82.6,64.3,29.98,SW,228,0.0,2.0,54,0.00,,,0.00,Wunderground v.1.15,2013-09-07 21:46:00,
2013-09-07 17:47:00,82.7,63.8,29.97,SW,228,0.0,2.0,53,0.00,,,0.00,Wunderground v.1.15,2013-09-07 21:47:00,
2013-09-07 17:51:00,82.7,63.8,29.97,SW,229,2.0,4.0,53,0.00,,,0.00,Wunderground v.1.15,2013-09-07 21:51:00,
2013-09-07 17:52:00,82.7,63.8,29.97,SW,229,1.0,4.0,53,0.00,,,0.00,Wunderground v.1.15,2013-09-07 21:52:00,
2013-09-07 17:53:00,82.6,63.2,29.97,SW,229,0.0,4.0,52,0.00,,,0.00,Wunderground v.1.15,2013-09-07 21:53:00,
2013-09-07 17:56:00,82.5,63.6,29.97,SW,229,3.0,4.0,53,0.00,,,0.00,Wunderground v.1.15,2013-09-07 21:56:00,
2013-09-07 17:57:00,82.5,63.6,29.97,SW,229,2.0,4.0,53,0.00,,,0.00,Wunderground v.1.15,2013-09-07 21:57:00,
2013-09-07 17:58:00,82.1,63.3,29.97,SW,229,1.0,6.0,53,0.00,,,0.00,Wunderground v.1.15,2013-09-07 21:58:00,
2013-09-07 18:01:00,81.9,63.6,29.97,SW,229,0.0,3.0,54,0.00,,,0.00,Wunderground v.1.15,2013-09-07 22:01:00,
2013-09-07 18:02:00,81.9,63.6,29.97,SW,229,1.0,3.0,54,0.00,,,0.00,Wunderground v.1.15,2013-09-07 22:02:00,
2013-09-07 18:03:00,82.0,63.7,29.97,SW,229,0.0,3.0,54,0.00,,,0.00,Wunderground v.1.15,2013-09-07 22:03:00,
2013-09-07 18:04:00,82.0,63.7,29.97,SW,229,1.0,3.0,54,0.00,,,0.00,Wunderground v.1.15,2013-09-07 22:04:00,
2013-09-07 18:06:00,81.9,63.6,29.97,SW,229,1.0,3.0,54,0.00,,,0.00,Wunderground v.1.15,2013-09-07 22:06:00,
2013-09-07 18:07:00,81.9,63.6,29.97,SW,229,1.0,3.0,54,0.00,,,0.00,Wunderground v.1.15,2013-09-07 22:07:00,
2013-09-07 18:08:00,81.8,63.5,29.97,SW,229,2.0,3.0,54,0.00,,,0.00,Wunderground v.1.15,2013-09-07 22:08:00,
2013-09-07 18:09:00,81.8,63.5,29.97,SW,229,0.0,3.0,54,0.00,,,0.00,Wunderground v.1.15,2013-09-07 22:09:00,
2013-09-07 18:11:00,81.9,63.6,29.97,SW,229,1.0,2.0,54,0.00,,,0.00,Wunderground v.1.15,2013-09-07 22:11:00,
2013-09-07 18:12:00,81.9,63.6,29.97,SW,229,1.0,2.0,54,0.00,,,0.00,Wunderground v.1.15,2013-09-07 22:12:00,
2013-09-07 18:13:00,82.0,64.2,29.97,SW,229,0.0,2.0,55,0.00,,,0.00,Wunderground v.1.15,2013-09-07 22:13:00,
2013-09-07 18:14:00,82.1,64.3,29.97,SW,229,0.0,2.0,55,0.00,,,0.00,Wunderground v.1.15,2013-09-07 22:14:00,
2013-09-07 18:16:00,82.3,64.0,29.97,SW,229,0.0,2.0,54,0.00,,,0.00,Wunderground v.1.15,2013-09-07 22:16:00,
2013-09-07 18:17:00,82.3,64.5,29.97,SW,229,0.0,2.0,55,0.00,,,0.00,Wunderground v.1.15,2013-09-07 22:17:00,
2013-09-07 18:18:00,82.4,64.6,29.97,SW,229,1.0,2.0,55,0.00,,,0.00,Wunderground v.1.15,2013-09-07 22:18:00,
2013-09-07 18:19:00,82.4,64.6,29.97,SW,229,1.0,2.0,55,0.00,,,0.00,Wunderground v.1.15,2013-09-07 22:19:00,
2013-09-07 18:20:00,82.3,64.0,29.97,SW,229,1.0,1.0,54,0.00,,,0.00,Wunderground v.1.15,2013-09-07 22:20:00,
2013-09-07 18:21:00,82.2,63.9,29.97,SW,229,1.0,2.0,54,0.00,,,0.00,Wunderground v.1.15,2013-09-07 22:21:00,
2013-09-07 18:22:00,82.1,63.8,29.97,SW,229,1.0,3.0,54,0.00,,,0.00,Wunderground v.1.15,2013-09-07 22:22:00,
2013-09-07 18:23:00,81.9,63.6,29.97,SW,233,0.0,3.0,54,0.00,,,0.00,Wunderground v.1.15,2013-09-07 22:23:00,
2013-09-07 18:24:00,81.7,64.0,29.97,SW,229,0.0,3.0,55,0.00,,,0.00,Wunderground v.1.15,2013-09-07 22:24:00,
2013-09-07 18:25:00,81.7,64.0,29.97,SW,229,1.0,3.0,55,0.00,,,0.00,Wunderground v.1.15,2013-09-07 22:25:00,
2013-09-07 18:26:00,81.6,63.9,29.97,SW,229,0.0,3.0,55,0.00,,,0.00,Wunderground v.1.15,2013-09-07 22:26:00,
2013-09-07 18:27:00,81.6,63.9,29.97,SW,229,1.0,3.0,55,0.00,,,0.00,Wunderground v.1.15,2013-09-07 22:27:00,
2013-09-07 18:28:00,81.6,63.9,29.97,SW,229,0.0,3.0,55,0.00,,,0.00,Wunderground v.1.15,2013-09-07 22:28:00,
2013-09-07 18:29:00,81.6,63.9,29.97,SW,229,0.0,3.0,55,0.00,,,0.00,Wunderground v.1.15,2013-09-07 22:29:00,
2013-09-07 18:30:00,81.5,63.8,29.97,SW,229,0.0,2.0,55,0.00,,,0.00,Wunderground v.1.15,2013-09-07 22:30:00,
2013-09-07 18:32:00,81.4,64.2,29.97,SW,229,2.0,2.0,56,0.00,,,0.00,Wunderground v.1.15,2013-09-07 22:32:00,
2013-09-07 18:33:00,81.3,63.6,29.97,SW,229,0.0,2.0,55,0.00,,,0.00,Wunderground v.1.15,2013-09-07 22:33:00,
2013-09-07 18:34:00,81.2,64.0,29.97,SW,229,0.0,2.0,56,0.00,,,0.00,Wunderground v.1.15,2013-09-07 22:34:00,
2013-09-07 18:35:00,81.3,64.6,29.97,SW,229,1.0,2.0,57,0.00,,,0.00,Wunderground v.1.15,2013-09-07 22:35:00,
2013-09-07 18:37:00,81.3,64.1,29.97,SW,229,2.0,2.0,56,0.00,,,0.00,Wunderground v.1.15,2013-09-07 22:37:00,
2013-09-07 18:38:00,81.2,64.0,29.97,SW,229,1.0,2.0,56,0.00,,,0.00,Wunderground v.1.15,2013-09-07 22:38:00,
2013-09-07 18:40:00,81.0,63.8,29.97,SW,229,0.0,1.0,56,0.00,,,0.00,Wunderground v.1.15,2013-09-07 22:40:00,
2013-09-07 18:41:00,80.9,64.2,29.97,SW,229,0.0,1.0,57,0.00,,,0.00,Wunderground v.1.15,2013-09-07 22:41:00,
2013-09-07 18:42:00,80.8,64.1,29.97,SW,229,0.0,1.0,57,0.00,,,0.00,Wunderground v.1.15,2013-09-07 22:42:00,
2013-09-07 18:43:00,80.7,64.1,29.97,SW,229,1.0,2.0,57,0.00,,,0.00,Wunderground v.1.15,2013-09-07 22:43:00,
2013-09-07 18:46:00,80.5,64.4,29.97,SW,229,0.0,2.0,58,0.00,,,0.00,Wunderground v.1.15,2013-09-07 22:46:00,
2013-09-07 18:47:00,80.4,64.3,29.97,SW,229,0.0,2.0,58,0.00,,,0.00,Wunderground v.1.15,2013-09-07 22:47:00,
2013-09-07 18:48:00,80.4,64.3,29.97,SW,229,0.0,2.0,58,0.00,,,0.00,Wunderground v.1.15,2013-09-07 22:48:00,
2013-09-07 18:51:00,80.5,64.4,29.97,SW,229,0.0,0.0,58,0.00,,,0.00,Wunderground v.1.15,2013-09-07 22:51:00,
2013-09-07 18:52:00,80.5,64.4,29.96,SW,229,0.0,0.0,58,0.00,,,0.00,Wunderground v.1.15,2013-09-07 22:52:00,
2013-09-07 18:53:00,80.5,64.4,29.96,SW,229,0.0,0.0,58,0.00,,,0.00,Wunderground v.1.15,2013-09-07 22:53:00,
2013-09-07 18:56:00,80.4,64.3,29.96,SW,229,0.0,0.0,58,0.00,,,0.00,Wunderground v.1.15,2013-09-07 22:56:00,
2013-09-07 18:57:00,80.3,64.7,29.96,SW,229,0.0,0.0,59,0.00,,,0.00,Wunderground v.1.15,2013-09-07 22:57:00,
2013-09-07 18:58:00,80.2,64.1,29.97,SW,229,0.0,0.0,58,0.00,,,0.00,Wunderground v.1.15,2013-09-07 22:58:00,
2013-09-07 19:01:00,79.4,64.3,29.97,SW,229,0.0,1.0,60,0.00,,,0.00,Wunderground v.1.15,2013-09-07 23:01:00,
2013-09-07 19:02:00,79.4,64.3,29.97,SW,229,0.0,1.0,60,0.00,,,0.00,Wunderground v.1.15,2013-09-07 23:02:00,
2013-09-07 19:03:00,79.2,64.1,29.97,SW,229,0.0,1.0,60,0.00,,,0.00,Wunderground v.1.15,2013-09-07 23:03:00,
2013-09-07 19:07:00,78.6,64.0,29.97,SW,229,0.0,1.0,61,0.00,,,0.00,Wunderground v.1.15,2013-09-07 23:07:00,
2013-09-07 19:08:00,78.3,64.2,29.97,SW,229,0.0,1.0,62,0.00,,,0.00,Wunderground v.1.15,2013-09-07 23:08:00,
2013-09-07 19:12:00,77.7,64.1,29.97,SW,229,0.0,0.0,63,0.00,,,0.00,Wunderground v.1.15,2013-09-07 23:12:00,
2013-09-07 19:13:00,77.6,64.0,29.97,SW,229,0.0,1.0,63,0.00,,,0.00,Wunderground v.1.15,2013-09-07 23:13:00,
2013-09-07 19:15:00,77.3,63.7,29.97,SW,229,0.0,1.0,63,0.00,,,0.00,Wunderground v.1.15,2013-09-07 23:15:00,
2013-09-07 19:17:00,77.0,64.3,29.96,SW,229,0.0,1.0,65,0.00,,,0.00,Wunderground v.1.15,2013-09-07 23:17:00,
2013-09-07 19:18:00,76.9,64.7,29.97,SW,229,0.0,1.0,66,0.00,,,0.00,Wunderground v.1.15,2013-09-07 23:18:00,
2013-09-07 19:20:00,76.6,64.8,29.97,SW,229,0.0,0.0,67,0.00,,,0.00,Wunderground v.1.15,2013-09-07 23:20:00,
2013-09-07 19:22:00,76.3,65.4,29.97,SW,229,0.0,0.0,69,0.00,,,0.00,Wunderground v.1.15,2013-09-07 23:22:00,
2013-09-07 19:23:00,76.2,65.3,29.97,SW,229,0.0,0.0,69,0.00,,,0.00,Wunderground v.1.15,2013-09-07 23:23:00,
2013-09-07 19:25:00,75.8,64.9,29.97,SW,229,0.0,0.0,69,0.00,,,0.00,Wunderground v.1.15,2013-09-07 23:25:00,
2013-09-07 19:27:00,75.5,65.0,29.97,SW,229,0.0,0.0,70,0.00,,,0.00,Wunderground v.1.15,2013-09-07 23:27:00,
2013-09-07 19:28:00,75.4,65.3,29.97,SW,229,0.0,0.0,71,0.00,,,0.00,Wunderground v.1.15,2013-09-07 23:28:00,
2013-09-07 19:30:00,75.0,65.4,29.97,SW,230,0.0,0.0,72,0.00,,,0.00,Wunderground v.1.15,2013-09-07 23:30:00,
2013-09-07 19:32:00,74.8,65.2,29.97,SW,229,0.0,0.0,72,0.00,,,0.00,Wunderground v.1.15,2013-09-07 23:32:00,
2013-09-07 19:33:00,74.8,64.8,29.97,SW,229,0.0,0.0,71,0.00,,,0.00,Wunderground v.1.15,2013-09-07 23:33:00,
2013-09-07 19:34:00,74.7,64.7,29.97,SW,229,0.0,0.0,71,0.00,,,0.00,Wunderground v.1.15,2013-09-07 23:34:00,
2013-09-07 19:37:00,74.4,64.8,29.97,SW,229,0.0,0.0,72,0.00,,,0.00,Wunderground v.1.15,2013-09-07 23:37:00,
2013-09-07 19:38:00,74.4,64.8,29.97,SW,229,0.0,0.0,72,0.00,,,0.00,Wunderground v.1.15,2013-09-07 23:38:00,
2013-09-07 19:39:00,74.3,64.7,29.97,SW,229,0.0,0.0,72,0.00,,,0.00,Wunderground v.1.15,2013-09-07 23:39:00,
2013-09-07 19:42:00,74.2,65.0,29.97,SW,229,0.0,0.0,73,0.00,,,0.00,Wunderground v.1.15,2013-09-07 23:42:00,
2013-09-07 19:43:00,74.1,64.9,29.97,SW,229,0.0,0.0,73,0.00,,,0.00,Wunderground v.1.15,2013-09-07 23:43:00,
2013-09-07 19:44:00,74.0,64.4,29.97,SW,229,0.0,0.0,72,0.00,,,0.00,Wunderground v.1.15,2013-09-07 23:44:00,
2013-09-07 19:47:00,73.8,64.6,29.97,SW,229,0.0,0.0,73,0.00,,,0.00,Wunderground v.1.15,2013-09-07 23:47:00,
2013-09-07 19:48:00,73.7,64.1,29.97,SW,229,0.0,0.0,72,0.00,,,0.00,Wunderground v.1.15,2013-09-07 23:48:00,
2013-09-07 19:49:00,73.7,64.1,29.97,SW,229,0.0,0.0,72,0.00,,,0.00,Wunderground v.1.15,2013-09-07 23:49:00,
2013-09-07 19:52:00,73.5,64.3,29.97,SW,229,0.0,0.0,73,0.00,,,0.00,Wunderground v.1.15,2013-09-07 23:52:00,
2013-09-07 19:53:00,73.4,64.2,29.97,SW,229,0.0,0.0,73,0.00,,,0.00,Wunderground v.1.15,2013-09-07 23:53:00,
2013-09-07 19:54:00,73.3,64.1,29.97,SW,230,0.0,0.0,73,0.00,,,0.00,Wunderground v.1.15,2013-09-07 23:54:00,
2013-09-07 19:57:00,73.1,65.1,29.97,SW,229,0.0,0.0,76,0.00,,,0.00,Wunderground v.1.15,2013-09-07 23:57:00,
2013-09-07 19:58:00,73.0,65.0,29.97,SW,229,0.0,0.0,76,0.00,,,0.00,Wunderground v.1.15,2013-09-07 23:58:00,
2013-09-07 19:59:00,72.9,64.9,29.97,SW,229,0.0,0.0,76,0.00,,,0.00,Wunderground v.1.15,2013-09-07 23:59:00,
2013-09-07 20:02:00,72.5,64.9,29.97,SW,229,0.0,0.0,77,0.00,,,0.00,Wunderground v.1.15,2013-09-08 00:02:00,
2013-09-07 20:03:00,72.5,64.9,29.97,SW,229,0.0,0.0,77,0.00,,,0.00,Wunderground v.1.15,2013-09-08 00:03:00,
2013-09-07 20:04:00,72.4,65.2,29.97,SW,229,0.0,0.0,78,0.00,,,0.00,Wunderground v.1.15,2013-09-08 00:04:00,
2013-09-07 20:07:00,72.1,64.9,29.97,SW,229,0.0,0.0,78,0.00,,,0.00,Wunderground v.1.15,2013-09-08 00:07:00,
2013-09-07 20:08:00,72.0,64.8,29.97,SW,230,0.0,0.0,78,0.00,,,0.00,Wunderground v.1.15,2013-09-08 00:08:00,
2013-09-07 20:09:00,71.9,65.0,29.97,SW,230,0.0,0.0,79,0.00,,,0.00,Wunderground v.1.15,2013-09-08 00:09:00,
2013-09-07 20:10:00,71.8,64.9,29.97,SW,229,0.0,0.0,79,0.00,,,0.00,Wunderground v.1.15,2013-09-08 00:10:00,
2013-09-07 20:12:00,71.6,64.7,29.97,SW,230,0.0,0.0,79,0.00,,,0.00,Wunderground v.1.15,2013-09-08 00:12:00,
2013-09-07 20:13:00,71.5,64.6,29.97,SW,229,0.0,0.0,79,0.00,,,0.00,Wunderground v.1.15,2013-09-08 00:13:00,
2013-09-07 20:14:00,71.4,64.5,29.97,SW,230,0.0,0.0,79,0.00,,,0.00,Wunderground v.1.15,2013-09-08 00:14:00,
2013-09-07 20:15:00,71.4,64.5,29.97,SW,229,0.0,1.0,79,0.00,,,0.00,Wunderground v.1.15,2013-09-08 00:15:00,
2013-09-07 20:18:00,71.1,64.3,29.97,SW,229,0.0,1.0,79,0.00,,,0.00,Wunderground v.1.15,2013-09-08 00:18:00,
2013-09-07 20:19:00,71.1,64.3,29.97,SW,228,0.0,1.0,79,0.00,,,0.00,Wunderground v.1.15,2013-09-08 00:19:00,
2013-09-07 20:20:00,71.0,64.2,29.97,SW,229,0.0,0.0,79,0.00,,,0.00,Wunderground v.1.15,2013-09-08 00:20:00,
2013-09-07 20:23:00,70.8,64.3,29.97,SW,229,0.0,0.0,80,0.00,,,0.00,Wunderground v.1.15,2013-09-08 00:23:00,
2013-09-07 20:24:00,70.7,64.2,29.97,SW,229,0.0,0.0,80,0.00,,,0.00,Wunderground v.1.15,2013-09-08 00:24:00,
2013-09-07 20:25:00,70.6,64.1,29.97,SW,229,0.0,0.0,80,0.00,,,0.00,Wunderground v.1.15,2013-09-08 00:25:00,
2013-09-07 20:28:00,70.5,64.4,29.97,SW,229,0.0,0.0,81,0.00,,,0.00,Wunderground v.1.15,2013-09-08 00:28:00,
2013-09-07 20:29:00,70.5,64.7,29.97,SW,229,0.0,0.0,82,0.00,,,0.00,Wunderground v.1.15,2013-09-08 00:29:00,
2013-09-07 20:30:00,70.5,64.7,29.97,SW,229,0.0,0.0,82,0.00,,,0.00,Wunderground v.1.15,2013-09-08 00:30:00,
2013-09-07 20:33:00,70.3,64.9,29.97,SW,229,0.0,0.0,83,0.00,,,0.00,Wunderground v.1.15,2013-09-08 00:33:00,
2013-09-07 20:34:00,70.3,64.9,29.97,SW,230,0.0,0.0,83,0.00,,,0.00,Wunderground v.1.15,2013-09-08 00:34:00,
2013-09-07 20:35:00,70.2,64.8,29.97,SW,229,0.0,0.0,83,0.00,,,0.00,Wunderground v.1.15,2013-09-08 00:35:00,
2013-09-07 20:38:00,70.1,64.7,29.97,SW,229,0.0,1.0,83,0.00,,,0.00,Wunderground v.1.15,2013-09-08 00:38:00,
2013-09-07 20:39:00,70.0,64.6,29.98,SW,229,0.0,1.0,83,0.00,,,0.00,Wunderground v.1.15,2013-09-08 00:39:00,
2013-09-07 20:40:00,70.0,64.6,29.98,SW,229,0.0,0.0,83,0.00,,,0.00,Wunderground v.1.15,2013-09-08 00:40:00,
2013-09-07 20:41:00,69.9,64.5,29.97,SW,229,0.0,0.0,83,0.00,,,0.00,Wunderground v.1.15,2013-09-08 00:41:00,
2013-09-07 20:43:00,69.8,64.4,29.97,SW,230,0.0,0.0,83,0.00,,,0.00,Wunderground v.1.15,2013-09-08 00:43:00,
2013-09-07 20:44:00,69.7,64.3,29.97,SW,228,0.0,0.0,83,0.00,,,0.00,Wunderground v.1.15,2013-09-08 00:44:00,
2013-09-07 20:45:00,69.6,64.2,29.97,SW,229,0.0,0.0,83,0.00,,,0.00,Wunderground v.1.15,2013-09-08 00:45:00,
2013-09-07 20:46:00,69.5,64.5,29.98,SW,228,0.0,0.0,84,0.00,,,0.00,Wunderground v.1.15,2013-09-08 00:46:00,
2013-09-07 20:48:00,69.5,64.5,29.98,SW,228,1.0,1.0,84,0.00,,,0.00,Wunderground v.1.15,2013-09-08 00:48:00,
2013-09-07 20:49:00,69.5,64.8,29.98,SW,228,1.0,1.0,85,0.00,,,0.00,Wunderground v.1.15,2013-09-08 00:49:00,
2013-09-07 20:50:00,69.4,64.7,29.98,SW,228,0.0,1.0,85,0.00,,,0.00,Wunderground v.1.15,2013-09-08 00:50:00,
2013-09-07 20:51:00,69.4,64.7,29.98,SW,228,0.0,1.0,85,0.00,,,0.00,Wunderground v.1.15,2013-09-08 00:51:00,
2013-09-07 20:53:00,69.4,64.7,29.98,SW,229,0.0,1.0,85,0.00,,,0.00,Wunderground v.1.15,2013-09-08 00:53:00,
2013-09-07 20:55:00,69.3,64.9,29.97,SW,229,0.0,1.0,86,0.00,,,0.00,Wunderground v.1.15,2013-09-08 00:55:00,
2013-09-07 20:57:00,69.2,64.8,29.97,SW,228,0.0,1.0,86,0.00,,,0.00,Wunderground v.1.15,2013-09-08 00:57:00,
2013-09-07 20:58:00,69.2,64.8,29.97,SW,229,0.0,1.0,86,0.00,,,0.00,Wunderground v.1.15,2013-09-08 00:58:00,
2013-09-07 20:59:00,69.2,65.2,29.97,SW,228,0.0,1.0,87,0.00,,,0.00,Wunderground v.1.15,2013-09-08 00:59:00,
2013-09-07 21:00:00,69.1,65.1,29.97,SW,227,0.0,1.0,87,0.00,,,0.00,Wunderground v.1.15,2013-09-08 01:00:00,
2013-09-07 21:02:00,69.0,65.0,29.97,SW,228,0.0,1.0,87,0.00,,,0.00,Wunderground v.1.15,2013-09-08 01:02:00,
2013-09-07 21:03:00,69.0,65.0,29.97,SW,227,0.0,1.0,87,0.00,,,0.00,Wunderground v.1.15,2013-09-08 01:03:00,
2013-09-07 21:04:00,68.9,64.9,29.97,SW,227,1.0,1.0,87,0.00,,,0.00,Wunderground v.1.15,2013-09-08 01:04:00,
2013-09-07 21:06:00,68.9,64.5,29.97,SW,228,0.0,1.0,86,0.00,,,0.00,Wunderground v.1.15,2013-09-08 01:06:00,
2013-09-07 21:07:00,68.8,64.4,29.97,SW,228,0.0,1.0,86,0.00,,,0.00,Wunderground v.1.15,2013-09-08 01:07:00,
2013-09-07 21:08:00,68.8,64.8,29.97,SW,228,0.0,1.0,87,0.00,,,0.00,Wunderground v.1.15,2013-09-08 01:08:00,
2013-09-07 21:09:00,68.8,64.8,29.97,SW,228,0.0,1.0,87,0.00,,,0.00,Wunderground v.1.15,2013-09-08 01:09:00,
2013-09-07 21:10:00,68.8,64.8,29.97,SW,228,0.0,0.0,87,0.00,,,0.00,Wunderground v.1.15,2013-09-08 01:10:00,
2013-09-07 21:11:00,68.7,64.7,29.97,SW,227,0.0,0.0,87,0.00,,,0.00,Wunderground v.1.15,2013-09-08 01:11:00,
2013-09-07 21:13:00,68.6,64.9,29.97,SW,227,0.0,0.0,88,0.00,,,0.00,Wunderground v.1.15,2013-09-08 01:13:00,
2013-09-07 21:14:00,68.6,64.9,29.97,SW,228,0.0,0.0,88,0.00,,,0.00,Wunderground v.1.15,2013-09-08 01:14:00,
2013-09-07 21:15:00,68.6,64.9,29.97,SW,228,0.0,0.0,88,0.00,,,0.00,Wunderground v.1.15,2013-09-08 01:15:00,
2013-09-07 21:16:00,68.6,64.9,29.97,SW,229,1.0,1.0,88,0.00,,,0.00,Wunderground v.1.15,2013-09-08 01:16:00,
2013-09-07 21:18:00,68.6,64.9,29.97,SW,228,0.0,1.0,88,0.00,,,0.00,Wunderground v.1.15,2013-09-08 01:18:00,
2013-09-07 21:19:00,68.6,64.9,29.97,SW,230,1.0,1.0,88,0.00,,,0.00,Wunderground v.1.15,2013-09-08 01:19:00,
2013-09-07 21:20:00,68.5,64.8,29.97,SW,228,0.0,0.0,88,0.00,,,0.00,Wunderground v.1.15,2013-09-08 01:20:00,
2013-09-07 21:21:00,68.5,65.1,29.97,SW,228,0.0,0.0,89,0.00,,,0.00,Wunderground v.1.15,2013-09-08 01:21:00,
2013-09-07 21:23:00,68.4,64.7,29.97,SW,227,0.0,0.0,88,0.00,,,0.00,Wunderground v.1.15,2013-09-08 01:23:00,
2013-09-07 21:24:00,68.4,64.7,29.97,SW,229,0.0,0.0,88,0.00,,,0.00,Wunderground v.1.15,2013-09-08 01:24:00,
2013-09-07 21:25:00,68.3,64.6,29.97,SW,229,0.0,0.0,88,0.00,,,0.00,Wunderground v.1.15,2013-09-08 01:25:00,
2013-09-07 21:26:00,68.3,64.6,29.97,SW,229,0.0,0.0,88,0.00,,,0.00,Wunderground v.1.15,2013-09-08 01:26:00,
2013-09-07 21:28:00,68.2,64.5,29.97,SW,228,0.0,1.0,88,0.00,,,0.00,Wunderground v.1.15,2013-09-08 01:28:00,
2013-09-07 21:29:00,68.1,64.4,29.98,SW,230,0.0,1.0,88,0.00,,,0.00,Wunderground v.1.15,2013-09-08 01:29:00,
2013-09-07 21:30:00,68.1,64.4,29.97,SW,227,0.0,0.0,88,0.00,,,0.00,Wunderground v.1.15,2013-09-08 01:30:00,
2013-09-07 21:31:00,68.0,64.3,29.98,SW,228,0.0,0.0,88,0.00,,,0.00,Wunderground v.1.15,2013-09-08 01:31:00,
2013-09-07 21:33:00,68.0,64.3,29.98,SW,229,1.0,1.0,88,0.00,,,0.00,Wunderground v.1.15,2013-09-08 01:33:00,
2013-09-07 21:34:00,68.0,64.3,29.98,SW,228,0.0,1.0,88,0.00,,,0.00,Wunderground v.1.15,2013-09-08 01:34:00,
2013-09-07 21:35:00,67.9,64.2,29.98,SW,228,0.0,1.0,88,0.00,,,0.00,Wunderground v.1.15,2013-09-08 01:35:00,
2013-09-07 21:37:00,67.8,64.1,29.97,SW,228,0.0,1.0,88,0.00,,,0.00,Wunderground v.1.15,2013-09-08 01:37:00,
2013-09-07 21:38:00,67.8,64.1,29.97,SW,228,0.0,1.0,88,0.00,,,0.00,Wunderground v.1.15,2013-09-08 01:38:00,
2013-09-07 21:39:00,67.7,64.0,29.97,SW,228,0.0,1.0,88,0.00,,,0.00,Wunderground v.1.15,2013-09-08 01:39:00,
2013-09-07 21:40:00,67.7,64.0,29.97,SW,228,0.0,0.0,88,0.00,,,0.00,Wunderground v.1.15,2013-09-08 01:40:00,
2013-09-07 21:42:00,67.6,64.2,29.97,SW,228,0.0,0.0,89,0.00,,,0.00,Wunderground v.1.15,2013-09-08 01:42:00,
2013-09-07 21:43:00,67.5,64.1,29.97,SW,229,0.0,0.0,89,0.00,,,0.00,Wunderground v.1.15,2013-09-08 01:43:00,
2013-09-07 21:44:00,67.4,64.0,29.97,SW,228,0.0,0.0,89,0.00,,,0.00,Wunderground v.1.15,2013-09-08 01:44:00,
2013-09-07 21:45:00,67.4,64.0,29.97,SW,228,0.0,0.0,89,0.00,,,0.00,Wunderground v.1.15,2013-09-08 01:45:00,
2013-09-07 21:46:00,67.4,64.0,29.97,SW,227,0.0,0.0,89,0.00,,,0.00,Wunderground v.1.15,2013-09-08 01:46:00,
2013-09-07 21:47:00,67.4,64.0,29.97,SW,229,0.0,0.0,89,0.00,,,0.00,Wunderground v.1.15,2013-09-08 01:47:00,
2013-09-07 21:48:00,67.3,63.9,29.97,SW,230,0.0,1.0,89,0.00,,,0.00,Wunderground v.1.15,2013-09-08 01:48:00,
2013-09-07 21:49:00,67.4,64.4,29.97,SW,228,0.0,1.0,90,0.00,,,0.00,Wunderground v.1.15,2013-09-08 01:49:00,
2013-09-07 21:50:00,67.4,64.4,29.98,SW,229,0.0,0.0,90,0.00,,,0.00,Wunderground v.1.15,2013-09-08 01:50:00,
2013-09-07 21:51:00,67.4,64.4,29.98,SW,228,0.0,1.0,90,0.00,,,0.00,Wunderground v.1.15,2013-09-08 01:51:00,
2013-09-07 21:52:00,67.4,64.4,29.97,SW,228,0.0,1.0,90,0.00,,,0.00,Wunderground v.1.15,2013-09-08 01:52:00,
2013-09-07 21:53:00,67.4,64.7,29.98,SW,228,0.0,1.0,91,0.00,,,0.00,Wunderground v.1.15,2013-09-08 01:53:00,
2013-09-07 21:54:00,67.4,64.4,29.97,SW,228,0.0,1.0,90,0.00,,,0.00,Wunderground v.1.15,2013-09-08 01:54:00,
2013-09-07 21:55:00,67.4,64.4,29.97,SW,228,0.0,1.0,90,0.00,,,0.00,Wunderground v.1.15,2013-09-08 01:55:00,
2013-09-07 21:56:00,67.3,64.3,29.97,SW,228,0.0,1.0,90,0.00,,,0.00,Wunderground v.1.15,2013-09-08 01:56:00,
2013-09-07 21:57:00,67.3,64.3,29.98,SW,228,0.0,1.0,90,0.00,,,0.00,Wunderground v.1.15,2013-09-08 01:57:00,
2013-09-07 21:58:00,67.2,64.2,29.97,SW,228,0.0,1.0,90,0.00,,,0.00,Wunderground v.1.15,2013-09-08 01:58:00,
2013-09-07 21:59:00,67.2,64.2,29.97,SW,228,0.0,1.0,90,0.00,,,0.00,Wunderground v.1.15,2013-09-08 01:59:00,
2013-09-07 22:00:00,67.2,64.2,29.97,SW,228,0.0,0.0,90,0.00,,,0.00,Wunderground v.1.15,2013-09-08 02:00:00,
2013-09-07 22:01:00,67.2,64.5,29.97,SW,228,0.0,0.0,91,0.00,,,0.00,Wunderground v.1.15,2013-09-08 02:01:00,
2013-09-07 22:02:00,67.1,64.4,29.97,SW,228,0.0,0.0,91,0.00,,,0.00,Wunderground v.1.15,2013-09-08 02:02:00,
2013-09-07 22:03:00,67.1,64.4,29.97,SW,228,0.0,0.0,91,0.00,,,0.00,Wunderground v.1.15,2013-09-08 02:03:00,
2013-09-07 22:04:00,67.1,64.4,29.97,SW,229,0.0,0.0,91,0.00,,,0.00,Wunderground v.1.15,2013-09-08 02:04:00,
2013-09-07 22:05:00,67.1,64.4,29.97,SW,228,0.0,0.0,91,0.00,,,0.00,Wunderground v.1.15,2013-09-08 02:05:00,
2013-09-07 22:06:00,67.0,64.3,29.97,SW,228,0.0,0.0,91,0.00,,,0.00,Wunderground v.1.15,2013-09-08 02:06:00,
2013-09-07 22:07:00,67.0,64.3,29.97,SW,228,0.0,0.0,91,0.00,,,0.00,Wunderground v.1.15,2013-09-08 02:07:00,
2013-09-07 22:08:00,66.9,64.2,29.97,SW,229,0.0,0.0,91,0.00,,,0.00,Wunderground v.1.15,2013-09-08 02:08:00,
2013-09-07 22:09:00,66.9,64.2,29.97,SW,228,0.0,0.0,91,0.00,,,0.00,Wunderground v.1.15,2013-09-08 02:09:00,
2013-09-07 22:10:00,66.9,64.2,29.97,SW,228,0.0,0.0,91,0.00,,,0.00,Wunderground v.1.15,2013-09-08 02:10:00,
2013-09-07 22:11:00,66.8,64.1,29.97,SW,228,0.0,0.0,91,0.00,,,0.00,Wunderground v.1.15,2013-09-08 02:11:00,
2013-09-07 22:12:00,66.8,64.1,29.97,SW,228,0.0,0.0,91,0.00,,,0.00,Wunderground v.1.15,2013-09-08 02:12:00,
2013-09-07 22:13:00,66.8,64.4,29.97,SW,228,0.0,0.0,92,0.00,,,0.00,Wunderground v.1.15,2013-09-08 02:13:00,
2013-09-07 22:14:00,66.8,64.4,29.97,SW,228,0.0,1.0,92,0.00,,,0.00,Wunderground v.1.15,2013-09-08 02:14:00,
2013-09-07 22:15:00,66.8,64.4,29.97,SW,229,0.0,1.0,92,0.00,,,0.00,Wunderground v.1.15,2013-09-08 02:15:00,
2013-09-07 22:16:00,66.8,64.4,29.97,SW,228,0.0,1.0,92,0.00,,,0.00,Wunderground v.1.15,2013-09-08 02:16:00,
2013-09-07 22:17:00,66.8,64.4,29.97,SW,228,0.0,1.0,92,0.00,,,0.00,Wunderground v.1.15,2013-09-08 02:17:00,
2013-09-07 22:18:00,66.8,64.4,29.97,SW,228,0.0,1.0,92,0.00,,,0.00,Wunderground v.1.15,2013-09-08 02:18:00,
2013-09-07 22:19:00,66.8,64.4,29.97,SW,229,0.0,1.0,92,0.00,,,0.00,Wunderground v.1.15,2013-09-08 02:19:00,
2013-09-07 22:20:00,66.8,64.4,29.97,SW,228,1.0,1.0,92,0.00,,,0.00,Wunderground v.1.15,2013-09-08 02:20:00,
2013-09-07 22:21:00,66.7,64.0,29.97,SW,228,0.0,1.0,91,0.00,,,0.00,Wunderground v.1.15,2013-09-08 02:21:00,
2013-09-07 22:22:00,66.7,64.3,29.97,SW,228,0.0,1.0,92,0.00,,,0.00,Wunderground v.1.15,2013-09-08 02:22:00,
2013-09-07 22:23:00,66.8,64.4,29.97,SW,228,1.0,1.0,92,0.00,,,0.00,Wunderground v.1.15,2013-09-08 02:23:00,
2013-09-07 22:24:00,66.8,64.4,29.97,SW,228,1.0,2.0,92,0.00,,,0.00,Wunderground v.1.15,2013-09-08 02:24:00,
2013-09-07 22:25:00,66.8,64.4,29.97,SW,228,0.0,2.0,92,0.00,,,0.00,Wunderground v.1.15,2013-09-08 02:25:00,
2013-09-07 22:27:00,66.9,64.5,29.97,SW,228,1.0,2.0,92,0.00,,,0.00,Wunderground v.1.15,2013-09-08 02:27:00,
2013-09-07 22:28:00,66.9,64.5,29.97,SW,228,1.0,2.0,92,0.00,,,0.00,Wunderground v.1.15,2013-09-08 02:28:00,
2013-09-07 22:29:00,67.0,64.6,29.97,SW,228,0.0,2.0,92,0.00,,,0.00,Wunderground v.1.15,2013-09-08 02:29:00,
2013-09-07 22:30:00,67.0,64.6,29.97,SW,228,1.0,1.0,92,0.00,,,0.00,Wunderground v.1.15,2013-09-08 02:30:00,
2013-09-07 22:32:00,66.9,64.8,29.97,SW,228,0.0,1.0,93,0.00,,,0.00,Wunderground v.1.15,2013-09-08 02:32:00,
2013-09-07 22:33:00,66.9,64.8,29.97,SW,228,0.0,1.0,93,0.00,,,0.00,Wunderground v.1.15,2013-09-08 02:33:00,
2013-09-07 22:34:00,66.9,64.8,29.97,SW,228,1.0,1.0,93,0.00,,,0.00,Wunderground v.1.15,2013-09-08 02:34:00,
2013-09-07 22:35:00,66.9,64.8,29.97,SW,228,1.0,1.0,93,0.00,,,0.00,Wunderground v.1.15,2013-09-08 02:35:00,
2013-09-07 22:37:00,66.9,64.5,29.97,SW,229,0.0,1.0,92,0.00,,,0.00,Wunderground v.1.15,2013-09-08 02:37:00,
2013-09-07 22:38:00,66.9,64.5,29.97,SW,228,0.0,1.0,92,0.00,,,0.00,Wunderground v.1.15,2013-09-08 02:38:00,
2013-09-07 22:39:00,66.9,64.5,29.97,SW,228,0.0,1.0,92,0.00,,,0.00,Wunderground v.1.15,2013-09-08 02:39:00,
2013-09-07 22:40:00,66.9,64.5,29.97,SW,228,0.0,0.0,92,0.00,,,0.00,Wunderground v.1.15,2013-09-08 02:40:00,
2013-09-07 22:43:00,66.9,64.2,29.97,SW,228,0.0,1.0,91,0.00,,,0.00,Wunderground v.1.15,2013-09-08 02:43:00,
2013-09-07 22:44:00,67.0,64.3,29.97,SW,228,0.0,1.0,91,0.00,,,0.00,Wunderground v.1.15,2013-09-08 02:44:00,
2013-09-07 22:45:00,67.0,64.3,29.97,SW,229,0.0,1.0,91,0.00,,,0.00,Wunderground v.1.15,2013-09-08 02:45:00,
2013-09-07 22:48:00,67.2,64.2,29.97,SW,228,0.0,3.0,90,0.00,,,0.00,Wunderground v.1.15,2013-09-08 02:48:00,
2013-09-07 22:50:00,67.4,64.4,29.97,SW,228,2.0,4.0,90,0.00,,,0.00,Wunderground v.1.15,2013-09-08 02:50:00,
2013-09-07 22:53:00,67.6,64.6,29.97,SW,228,0.0,4.0,90,0.00,,,0.00,Wunderground v.1.15,2013-09-08 02:53:00,
2013-09-07 22:54:00,67.6,64.2,29.97,SW,230,0.0,4.0,89,0.00,,,0.00,Wunderground v.1.15,2013-09-08 02:54:00,
2013-09-07 22:55:00,67.7,64.3,29.97,SW,228,0.0,4.0,89,0.00,,,0.00,Wunderground v.1.15,2013-09-08 02:55:00,
2013-09-07 22:58:00,67.7,64.3,29.97,SW,228,0.0,4.0,89,0.00,,,0.00,Wunderground v.1.15,2013-09-08 02:58:00,
2013-09-07 22:59:00,67.7,64.3,29.97,SW,228,1.0,4.0,89,0.00,,,0.00,Wunderground v.1.15,2013-09-08 02:59:00,
2013-09-07 23:00:00,67.7,64.7,29.97,SW,228,0.0,1.0,90,0.00,,,0.00,Wunderground v.1.15,2013-09-08 03:00:00,
2013-09-07 23:01:00,67.7,64.7,29.97,SW,228,1.0,2.0,90,0.00,,,0.00,Wunderground v.1.15,2013-09-08 03:01:00,
2013-09-07 23:03:00,67.7,64.3,29.97,SW,229,0.0,2.0,89,0.00,,,0.00,Wunderground v.1.15,2013-09-08 03:03:00,
2013-09-07 23:04:00,67.8,64.4,29.97,SW,228,0.0,2.0,89,0.00,,,0.00,Wunderground v.1.15,2013-09-08 03:04:00,
2013-09-07 23:05:00,67.8,64.4,29.97,SW,228,0.0,2.0,89,0.00,,,0.00,Wunderground v.1.15,2013-09-08 03:05:00,
2013-09-07 23:06:00,67.7,64.3,29.97,SW,229,0.0,2.0,89,0.00,,,0.00,Wunderground v.1.15,2013-09-08 03:06:00,
2013-09-07 23:08:00,67.7,64.3,29.97,SW,228,0.0,2.0,89,0.00,,,0.00,Wunderground v.1.15,2013-09-08 03:08:00,
2013-09-07 23:09:00,67.7,64.3,29.97,SW,228,0.0,2.0,89,0.00,,,0.00,Wunderground v.1.15,2013-09-08 03:09:00,
2013-09-07 23:10:00,67.7,64.3,29.97,SW,228,0.0,1.0,89,0.00,,,0.00,Wunderground v.1.15,2013-09-08 03:10:00,
2013-09-07 23:11:00,67.7,64.3,29.97,SW,229,0.0,1.0,89,0.00,,,0.00,Wunderground v.1.15,2013-09-08 03:11:00,
2013-09-07 23:13:00,67.6,64.2,29.97,SW,228,0.0,1.0,89,0.00,,,0.00,Wunderground v.1.15,2013-09-08 03:13:00,
2013-09-07 23:14:00,67.7,64.3,29.97,SW,229,1.0,2.0,89,0.00,,,0.00,Wunderground v.1.15,2013-09-08 03:14:00,
2013-09-07 23:15:00,67.6,63.9,29.97,SW,228,0.0,2.0,88,0.00,,,0.00,Wunderground v.1.15,2013-09-08 03:15:00,
2013-09-07 23:16:00,67.6,63.9,29.97,SW,229,0.0,2.0,88,0.00,,,0.00,Wunderground v.1.15,2013-09-08 03:16:00,
2013-09-07 23:18:00,67.6,64.2,29.97,SW,228,0.0,2.0,89,0.00,,,0.00,Wunderground v.1.15,2013-09-08 03:18:00,
2013-09-07 23:19:00,67.6,64.2,29.97,SW,229,0.0,2.0,89,0.00,,,0.00,Wunderground v.1.15,2013-09-08 03:19:00,
2013-09-07 23:20:00,67.5,64.1,29.97,SW,228,1.0,1.0,89,0.00,,,0.00,Wunderground v.1.15,2013-09-08 03:20:00,
2013-09-07 23:21:00,67.5,64.1,29.97,SW,228,0.0,1.0,89,0.00,,,0.00,Wunderground v.1.15,2013-09-08 03:21:00,
2013-09-07 23:23:00,67.4,64.4,29.96,SW,228,0.0,1.0,90,0.00,,,0.00,Wunderground v.1.15,2013-09-08 03:23:00,
2013-09-07 23:25:00,67.4,64.4,29.96,SW,229,0.0,1.0,90,0.00,,,0.00,Wunderground v.1.15,2013-09-08 03:25:00,
2013-09-07 23:26:00,67.3,64.3,29.96,SW,228,0.0,1.0,90,0.00,,,0.00,Wunderground v.1.15,2013-09-08 03:26:00,
2013-09-07 23:28:00,67.2,64.2,29.96,SW,228,0.0,1.0,90,0.00,,,0.00,Wunderground v.1.15,2013-09-08 03:28:00,
2013-09-07 23:30:00,67.1,64.1,29.96,SW,230,2.0,2.0,90,0.00,,,0.00,Wunderground v.1.15,2013-09-08 03:30:00,
2013-09-07 23:31:00,67.1,64.1,29.96,SW,228,1.0,2.0,90,0.00,,,0.00,Wunderground v.1.15,2013-09-08 03:31:00,
2013-09-07 23:32:00,67.2,64.2,29.96,SW,228,0.0,2.0,90,0.00,,,0.00,Wunderground v.1.15,2013-09-08 03:32:00,
2013-09-07 23:33:00,67.2,64.2,29.96,SW,230,0.0,2.0,90,0.00,,,0.00,Wunderground v.1.15,2013-09-08 03:33:00,
2013-09-07 23:35:00,67.2,64.2,29.96,SW,228,0.0,2.0,90,0.00,,,0.00,Wunderground v.1.15,2013-09-08 03:35:00,
2013-09-07 23:36:00,67.2,64.2,29.96,SW,228,0.0,2.0,90,0.00,,,0.00,Wunderground v.1.15,2013-09-08 03:36:00,
2013-09-07 23:37:00,67.1,64.1,29.96,SW,228,0.0,2.0,90,0.00,,,0.00,Wunderground v.1.15,2013-09-08 03:37:00,
2013-09-07 23:39:00,67.1,64.1,29.96,SW,228,0.0,2.0,90,0.00,,,0.00,Wunderground v.1.15,2013-09-08 03:39:00,
2013-09-07 23:40:00,67.1,64.1,29.96,SW,228,0.0,1.0,90,0.00,,,0.00,Wunderground v.1.15,2013-09-08 03:40:00,
2013-09-07 23:41:00,67.1,64.1,29.96,SW,229,0.0,1.0,90,0.00,,,0.00,Wunderground v.1.15,2013-09-08 03:41:00,
2013-09-07 23:42:00,67.0,64.0,29.96,SW,229,0.0,1.0,90,0.00,,,0.00,Wunderground v.1.15,2013-09-08 03:42:00,
2013-09-07 23:44:00,66.9,63.9,29.96,SW,230,0.0,1.0,90,0.00,,,0.00,Wunderground v.1.15,2013-09-08 03:44:00,
2013-09-07 23:46:00,66.9,63.9,29.96,SW,230,0.0,1.0,90,0.00,,,0.00,Wunderground v.1.15,2013-09-08 03:46:00,
2013-09-07 23:48:00,66.8,63.8,29.96,SW,228,0.0,1.0,90,0.00,,,0.00,Wunderground v.1.15,2013-09-08 03:48:00,
2013-09-07 23:49:00,66.8,63.8,29.96,SW,229,0.0,1.0,90,0.00,,,0.00,Wunderground v.1.15,2013-09-08 03:49:00,
2013-09-07 23:51:00,66.8,63.8,29.96,SW,230,0.0,0.0,90,0.00,,,0.00,Wunderground v.1.15,2013-09-08 03:51:00,
2013-09-07 23:52:00,66.8,63.8,29.96,SW,229,0.0,0.0,90,0.00,,,0.00,Wunderground v.1.15,2013-09-08 03:52:00,
2013-09-07 23:53:00,66.8,63.8,29.96,SW,228,0.0,1.0,90,0.00,,,0.00,Wunderground v.1.15,2013-09-08 03:53:00,
2013-09-07 23:54:00,66.8,63.8,29.96,SW,228,0.0,1.0,90,0.00,,,0.00,Wunderground v.1.15,2013-09-08 03:54:00,
2013-09-07 23:56:00,66.9,63.9,29.96,SW,229,0.0,1.0,90,0.00,,,0.00,Wunderground v.1.15,2013-09-08 03:56:00,
2013-09-07 23:57:00,66.9,63.9,29.96,SW,228,0.0,1.0,90,0.00,,,0.00,Wunderground v.1.15,2013-09-08 03:57:00,
2013-09-07 23:58:00,66.9,63.9,29.96,SW,229,0.0,1.0,90,0.00,,,0.00,Wunderground v.1.15,2013-09-08 03:58:00,
2013-09-07 23:59:00,66.9,63.9,29.96,SW,229,0.0,1.0,90,0.00,,,0.00,Wunderground v.1.15,2013-09-08 03:59:00,